ECMWFFLT2_925_rhum_009.txt.gz
RH
87 87 87 84 79 75 73 73 72 70 67 65 65 64 65 65 63 64 66 67 66 63 65 67 69 66 60 59 58 58 61 65 67 66 65 61 62 62 57 60 69 74 71 69 73 81 88 64 30 15 12 24
87 87 88 85 79 76 74 74 73 72 70 67 66 67 66 65 63 64 66 68 68 63 65 68 68 68 63 63 62 61 61 59 62 61 60 57 57 58 54 60 70 73 71 72 74 80 84 54 25 13 5 23
84 85 85 85 79 76 77 77 75 73 71 69 68 70 69 68 65 65 64 67 69 65 65 66 66 68 64 64 64 63 63 60 61 61 61 60 61 61 56 62 68 69 68 65 67 76 81 52 24 13 11 27
81 82 79 81 81 77 79 81 78 77 75 71 68 69 69 68 66 66 67 69 72 70 67 64 65 70 65 63 66 63 63 64 64 64 65 64 65 63 57 62 64 64 65 60 60 72 78 50 24 21 25 26
74 78 75 77 82 79 79 83 80 79 79 75 70 69 69 67 67 69 71 71 73 74 71 65 63 70 66 61 67 66 63 66 65 66 68 67 66 61 60 65 63 63 66 66 64 72 81 52 28 31 26 17
72 75 78 80 83 82 82 84 82 82 80 79 74 72 72 69 68 69 69 70 72 75 74 70 65 70 70 60 65 70 66 66 66 67 69 69 66 63 65 67 65 67 68 74 70 73 87 60 33 34 16 7
75 76 78 82 83 84 83 82 83 81 76 77 76 73 74 71 66 66 66 68 72 75 74 74 69 70 74 65 61 67 68 68 68 68 68 67 67 65 68 68 66 69 71 77 74 77 86 59 36 31 11 7
69 72 72 76 79 80 79 78 79 78 74 74 74 72 73 68 63 64 65 68 73 74 74 76 74 71 76 73 66 64 64 67 70 73 70 68 68 67 70 71 68 68 72 76 77 83 77 50 36 28 14 18
60 65 65 67 71 74 73 75 75 73 73 74 73 70 70 66 64 65 65 67 71 73 72 76 79 77 76 77 74 66 62 64 67 72 73 71 69 69 74 72 68 69 73 77 79 77 57 37 33 26 19 23
56 58 61 63 65 68 69 70 73 72 72 73 73 72 68 64 65 66 66 66 68 70 70 75 81 82 77 74 75 72 68 65 64 67 70 71 69 72 77 71 69 68 66 67 67 56 36 27 29 25 21 19
55 55 57 61 63 66 68 69 71 70 70 71 72 74 69 63 64 65 66 67 67 70 69 70 78 81 77 71 71 74 72 68 64 63 63 67 71 75 77 73 70 64 55 51 44 34 27 26 25 23 22 15
54 55 54 58 62 65 67 69 71 70 69 70 70 73 70 64 62 60 62 64 67 73 67 64 72 76 75 70 67 70 69 68 68 64 64 70 74 75 73 72 68 60 54 49 38 29 26 26 22 19 20 16
50 53 53 55 59 62 65 67 68 69 69 68 66 67 69 68 64 60 62 62 65 73 69 64 70 72 72 68 66 68 64 64 69 66 66 71 72 69 68 66 61 57 54 54 48 38 29 26 22 16 17 19
50 50 52 52 55 58 63 65 65 66 66 66 65 63 67 70 66 64 64 65 68 73 71 68 71 70 68 67 67 66 57 57 64 62 62 65 66 63 62 59 56 54 50 50 50 41 32 25 23 20 17 19
52 50 51 52 53 55 58 62 64 64 63 63 64 62 64 68 69 68 66 66 69 71 71 70 70 69 67 65 64 60 52 54 58 56 56 60 61 60 61 57 53 52 45 43 43 36 32 26 23 24 20 21
50 52 53 54 54 55 56 60 61 62 62 62 62 62 64 67 69 71 68 65 67 68 70 69 68 69 67 63 60 56 51 51 53 51 53 56 56 57 60 56 49 48 42 39 37 31 30 26 23 24 22 23
49 50 51 54 54 54 56 58 60 60 60 60 60 61 63 66 67 70 69 66 65 66 67 67 68 69 67 63 59 56 52 47 49 50 50 54 55 53 54 50 43 41 38 34 34 31 27 25 23 23 22 21
47 48 48 50 51 53 55 56 57 58 58 58 59 58 60 65 68 71 72 68 66 66 67 65 67 69 66 64 59 56 53 47 46 46 46 50 51 47 44 42 37 35 35 30 31 31 27 24 22 21 21 19
46 46 46 48 49 50 54 57 57 58 58 58 58 56 57 59 64 71 74 71 68 66 67 65 64 67 65 63 60 57 54 48 42 41 41 43 44 41 37 34 31 31 31 26 26 29 28 25 23 21 22 19
49 47 44 45 47 49 52 54 55 57 58 58 58 57 57 57 60 66 70 71 70 67 67 65 61 63 64 61 60 57 53 47 39 37 37 37 37 35 33 29 26 27 28 24 23 27 28 26 25 24 24 21
50 51 48 44 44 47 49 50 50 52 55 56 57 58 58 58 57 59 63 66 68 67 66 65 60 59 62 62 59 56 52 47 40 36 34 33 33 30 29 27 22 24 26 23 23 25 27 26 26 27 25 23
51 52 52 50 46 44 44 47 49 50 51 52 54 56 57 58 58 58 60 62 64 65 64 64 61 57 58 62 60 54 50 47 41 36 34 32 30 27 26 24 21 23 24 23 24 24 26 26 26 28 26 25
50 50 50 53 51 47 45 44 47 51 52 51 51 52 55 57 59 61 61 62 64 64 63 62 62 59 56 60 60 52 46 45 42 37 34 31 29 27 23 22 21 22 25 26 27 26 25 26 27 28 27 27
47 49 50 53 52 52 51 49 49 52 52 52 52 53 55 57 58 61 62 63 65 64 64 62 61 60 57 59 59 51 45 43 41 36 34 31 29 27 23 22 22 22 24 27 29 29 26 27 28 28 28 28
46 45 47 51 53 53 55 56 57 54 50 53 59 59 61 62 61 62 63 64 66 65 66 64 61 60 59 59 58 52 45 42 40 37 34 31 29 28 24 23 23 22 24 26 27 28 27 27 28 29 30 29
47 46 46 49 52 54 55 56 58 57 57 59 64 65 67 70 66 66 68 67 68 67 68 68 65 63 60 58 57 54 48 43 41 38 35 32 30 30 26 23 24 22 23 24 23 23 25 25 26 29 31 30
44 45 48 52 54 56 55 54 55 57 61 63 63 62 64 69 68 67 70 70 70 70 70 70 67 65 63 60 57 55 50 46 42 39 36 32 30 31 28 24 25 24 22 22 20 19 21 21 22 26 30 31
39 40 45 51 54 56 56 55 55 55 55 60 64 64 64 66 66 67 69 69 70 72 71 70 68 66 63 61 59 55 51 48 44 40 37 34 30 30 29 26 26 26 23 21 18 17 18 17 18 21 24 28
36 36 38 42 46 52 56 57 57 55 51 54 60 62 63 64 64 67 71 70 72 73 72 70 70 68 65 62 60 56 52 49 46 42 39 36 33 30 29 27 26 28 26 21 18 17 17 17 19 19 19 23
34 34 35 36 40 46 53 57 59 59 54 53 55 55 55 58 61 64 68 71 74 76 76 75 73 71 69 66 63 59 54 49 47 44 41 39 35 32 30 28 26 29 30 25 19 18 18 19 21 18 17 20
34 35 34 35 39 43 48 54 58 60 59 59 60 58 58 57 58 58 61 67 72 75 77 80 79 77 75 72 68 63 56 50 48 46 42 40 38 34 32 30 27 28 31 29 23 20 18 19 20 18 17 18

ECMWFFLT2_925_rhum_012.txt.gz
RH
81 82 81 81 78 74 74 74 74 72 67 67 66 66 67 65 65 63 64 66 66 66 63 61 61 60 56 54 58 60 62 69 71 72 68 67 71 70 65 66 71 73 71 69 74 67 51 44 26 7 15 27
81 82 82 84 82 77 75 74 74 72 68 68 67 66 67 66 67 67 66 69 70 66 63 62 64 62 56 54 57 59 62 68 69 69 67 65 68 70 64 65 75 77 74 71 71 65 52 50 36 7 8 30
80 82 84 86 85 79 77 76 74 71 69 70 69 66 67 66 66 67 65 67 68 66 64 64 65 63 59 58 58 58 61 65 67 67 67 66 67 68 63 66 79 78 74 72 67 65 60 47 26 8 14 28
78 80 83 86 88 84 78 77 75 71 70 69 69 67 66 66 66 66 65 64 65 66 66 64 65 63 61 62 61 59 60 63 66 68 66 66 64 62 60 68 80 79 75 72 68 67 57 40 19 12 28 30
76 77 79 83 86 87 82 78 76 73 72 71 70 70 67 66 67 66 66 64 64 66 66 64 65 63 63 64 64 64 62 63 64 65 65 62 59 57 58 65 76 78 74 68 70 68 55 44 25 16 33 30
72 74 75 78 80 83 83 81 78 75 75 74 72 70 70 71 69 67 66 66 65 67 66 66 66 64 66 65 65 66 65 65 63 63 64 61 60 61 61 64 71 73 68 64 67 68 62 53 31 22 30 22
62 68 73 78 79 79 81 82 81 79 77 76 75 71 71 75 74 70 68 68 66 68 67 67 68 65 67 66 64 65 65 65 64 65 67 67 68 67 64 63 67 68 64 63 64 67 67 54 32 25 25 15
56 60 66 74 79 81 81 83 82 82 81 78 76 73 72 75 77 74 70 69 67 67 67 68 70 67 65 64 64 64 64 66 65 67 70 72 73 71 67 64 66 66 64 64 62 67 67 55 38 29 19 12
53 55 58 62 68 74 77 81 80 82 84 80 77 73 72 75 77 75 71 68 68 68 69 70 72 70 65 59 63 66 64 66 66 67 71 72 73 72 68 66 68 66 65 65 62 66 68 60 47 35 21 12
50 52 54 56 58 62 68 73 76 79 81 81 78 72 70 75 77 75 71 68 68 69 69 71 73 72 69 60 62 69 67 65 65 67 70 72 73 71 69 68 69 66 64 63 61 64 69 63 47 33 24 16
49 50 52 54 55 56 60 65 71 75 77 78 78 74 72 75 76 74 71 68 67 68 69 70 73 73 72 65 61 68 70 67 67 67 67 72 73 70 70 69 68 68 64 61 61 63 67 60 41 30 26 18
50 50 51 52 53 54 56 60 65 70 74 75 75 74 73 74 75 73 71 68 66 69 71 70 72 74 75 70 62 66 71 68 68 67 66 70 73 71 69 69 69 68 66 65 66 66 63 51 33 27 26 19
49 49 50 51 52 53 54 56 59 64 69 74 76 75 75 74 73 72 70 67 66 68 72 72 71 72 76 76 68 68 71 68 67 66 66 69 72 72 70 70 71 69 67 67 69 66 55 39 28 26 24 21
47 49 49 49 52 54 54 54 56 59 62 67 73 75 76 78 77 74 71 68 67 68 71 71 69 70 76 80 75 71 72 69 66 65 67 69 70 72 72 71 72 70 68 67 64 56 43 32 27 26 24 21
42 46 48 48 49 52 53 53 55 57 59 61 64 68 71 77 80 78 76 74 70 71 73 70 67 68 74 80 78 72 71 69 66 65 66 68 69 71 71 73 73 71 69 65 58 48 38 33 29 28 26 22
39 40 44 46 48 49 50 52 55 56 57 59 60 62 64 68 76 79 79 80 76 74 75 72 68 67 70 77 78 72 69 70 68 65 65 66 68 71 72 74 74 72 69 65 58 53 45 38 35 33 30 23
40 37 37 40 44 47 48 49 51 55 56 57 58 59 60 60 66 72 76 81 80 78 77 75 70 67 69 72 75 70 65 67 69 67 66 67 69 71 73 73 73 71 67 64 60 58 54 47 43 37 31 23
42 41 38 36 38 43 48 50 49 52 54 56 57 57 59 58 58 62 69 76 79 79 78 78 76 71 69 70 71 69 64 64 65 66 67 67 69 70 72 71 69 66 62 60 57 55 54 49 44 36 28 22
41 44 43 41 40 38 39 46 50 50 51 54 57 58 58 58 57 58 60 67 74 77 77 79 80 76 72 70 69 66 64 64 60 62 65 64 66 67 67 66 62 60 58 55 52 50 49 44 40 32 25 21
39 44 46 45 46 43 37 39 44 47 49 50 52 56 58 58 57 58 57 60 67 73 75 77 79 78 73 70 68 65 64 62 56 55 60 58 61 63 62 62 59 57 56 52 48 45 43 39 34 29 23 21
37 43 46 45 46 49 44 40 38 42 48 50 50 51 53 56 57 58 58 59 62 67 71 73 76 77 73 69 67 65 61 59 53 52 54 54 57 59 58 60 58 53 52 50 44 40 38 34 30 27 22 20
38 41 44 44 45 49 49 47 43 41 44 48 51 51 50 52 54 56 57 59 60 62 64 66 70 73 73 70 67 66 62 57 54 51 50 50 53 56 55 54 53 48 44 43 38 34 33 31 28 25 22 20
40 42 43 43 44 47 47 49 49 47 47 46 47 51 52 51 52 53 54 55 57 59 62 63 65 67 69 70 68 66 63 59 55 51 47 47 48 52 51 48 46 42 37 36 32 29 29 29 27 25 23 22
41 43 45 44 44 46 47 47 49 50 53 51 48 49 54 58 57 56 56 54 54 56 59 63 65 65 65 66 68 67 64 60 57 52 47 44 44 46 46 42 39 35 31 30 27 24 25 27 26 25 24 24
40 43 44 44 45 47 49 50 51 52 53 54 53 50 53 56 56 57 60 60 58 56 57 60 64 67 67 67 67 67 65 60 57 54 48 42 40 40 40 37 33 29 26 27 28 27 25 25 25 25 25 25
38 40 41 41 41 43 47 50 53 53 53 53 54 55 56 54 52 52 55 62 66 65 63 61 63 65 68 71 71 70 68 62 57 54 49 43 39 37 36 34 30 26 24 27 30 30 29 28 26 25 25 25
36 37 37 36 36 37 41 45 47 50 52 54 54 54 56 56 55 53 52 56 63 69 69 67 67 67 66 69 72 73 72 67 58 52 48 44 40 38 34 31 28 24 23 26 28 30 32 32 32 32 31 28
33 34 34 34 34 34 34 38 41 46 51 54 54 52 54 61 63 61 57 54 55 61 68 71 73 76 74 71 72 75 77 75 65 54 48 45 41 39 36 32 27 23 22 24 27 31 31 30 33 37 35 32
32 33 34 34 34 34 33 35 38 44 49 52 54 54 56 63 64 65 65 61 56 56 62 68 73 78 82 81 78 77 78 80 75 63 53 47 42 39 37 33 29 25 22 22 24 27 28 29 34 34 32 34
34 35 35 35 35 36 36 37 38 40 44 47 53 56 56 58 59 63 66 65 62 60 60 64 68 73 79 83 83 82 80 80 79 72 61 51 44 39 36 34 31 27 25 23 22 23 23 26 29 29 32 37
36 36 36 36 37 38 39 40 39 38 39 42 48 52 54 56 57 61 64 64 64 66 65 64 65 69 74 78 80 83 84 81 78 74 66 57 50 43 38 35 33 30 26 25 24 22 21 21 21 23 29 35

ECMWFFLT2_925_rhum_018.txt.gz
RH
98 98 98 93 87 84 77 74 74 75 73 70 69 66 68 67 67 66 66 67 69 69 66 69 68 67 65 63 64 63 63 63 68 77 81 78 71 77 83 83 78 75 81 75 66 53 28 10 5 0 18 64
79 85 93 97 95 93 83 76 73 74 74 73 72 70 70 68 68 67 67 67 67 70 68 69 68 68 68 66 66 64 64 62 65 74 79 78 72 73 78 80 78 78 86 80 69 55 27 9 9 2 8 50
57 63 72 82 90 96 94 86 77 73 73 73 72 71 71 70 71 71 69 68 67 70 70 70 70 68 68 67 69 67 65 63 64 71 75 75 73 72 71 76 83 83 88 89 72 56 43 30 24 25 14 23
49 50 53 60 69 80 90 94 90 84 81 77 74 71 71 71 73 73 72 72 69 68 68 69 70 69 68 67 67 66 64 64 64 68 74 76 74 72 70 70 80 85 89 93 76 60 57 48 42 50 39 16
46 48 49 50 53 58 68 80 87 89 89 86 81 75 70 70 72 74 74 76 73 69 67 67 70 68 68 66 65 63 61 63 63 64 71 79 78 74 73 69 74 84 92 96 79 64 63 57 55 58 55 37
30 38 44 47 50 51 53 59 66 72 79 84 85 83 76 72 72 74 74 76 77 73 68 66 69 68 68 66 63 62 62 63 62 62 67 75 80 76 77 73 72 82 93 99 83 68 67 63 65 62 56 49
13 19 24 31 39 45 49 52 54 56 63 72 80 83 84 80 76 74 73 73 76 75 71 67 65 64 66 66 62 62 65 65 60 61 65 70 78 78 78 75 71 78 87 98 90 72 72 69 67 65 56 50
11 11 11 13 18 25 33 41 48 52 55 61 68 75 82 86 84 80 76 72 73 75 74 70 65 61 62 65 63 61 63 65 61 60 64 67 76 78 77 75 71 76 82 95 95 77 73 72 69 65 58 51
12 12 10 9 10 10 14 19 28 37 46 53 57 63 69 77 84 87 86 80 74 75 75 73 69 64 62 63 64 63 60 62 62 61 64 65 73 79 76 73 73 76 81 91 94 83 74 72 70 65 59 49
13 13 12 10 10 9 9 9 11 15 24 36 46 53 56 62 72 81 89 90 83 77 76 74 72 68 65 62 62 64 61 60 61 62 64 64 69 77 76 72 75 77 79 85 90 87 78 73 71 64 63 51
13 14 14 12 10 9 9 9 9 8 10 15 26 39 48 52 58 66 77 87 90 84 79 75 73 71 68 66 63 63 63 61 60 60 64 65 66 73 77 72 75 79 78 81 85 86 80 73 70 64 64 55
15 15 16 14 13 11 9 9 8 8 9 8 11 21 36 46 50 55 61 73 84 87 86 79 75 73 70 67 66 64 63 63 61 59 63 67 66 70 76 74 74 79 79 80 83 84 79 72 69 64 63 53
19 16 17 17 16 14 13 11 9 9 8 8 8 10 24 40 46 49 52 58 67 78 87 87 81 76 73 69 66 66 64 65 64 61 61 65 69 70 74 75 73 76 78 80 82 81 76 69 67 64 61 54
23 18 17 18 21 20 18 15 13 12 10 8 9 9 17 36 45 47 51 53 56 64 76 88 90 83 78 74 70 68 65 65 65 64 62 62 69 73 73 73 71 72 75 76 77 76 72 68 67 65 62 59
24 21 17 18 24 26 24 24 21 17 16 12 11 10 18 34 43 46 49 51 52 55 61 74 86 89 85 80 77 74 70 67 67 66 64 62 66 72 73 72 70 70 71 72 73 71 70 68 66 65 65 63
22 22 19 19 24 30 29 30 31 27 25 22 18 15 20 32 40 45 49 50 52 53 55 59 68 82 91 89 82 80 77 72 68 67 66 64 64 69 73 72 70 71 71 71 70 69 69 68 67 66 65 65
21 21 20 20 25 33 34 33 39 38 32 29 28 28 28 33 37 44 49 51 52 53 55 56 56 65 83 95 90 84 83 80 74 70 68 66 63 66 72 73 71 72 74 73 71 70 69 69 68 67 66 65
20 21 21 23 27 34 36 34 38 42 38 32 32 37 42 41 39 42 49 52 53 55 56 56 56 56 67 89 98 91 86 85 82 76 72 69 65 65 70 72 72 72 74 74 73 73 70 70 69 68 67 65
22 22 22 25 29 33 36 36 37 39 40 37 35 38 42 41 37 38 45 51 55 57 58 58 57 56 59 75 92 97 92 88 86 83 80 75 70 68 70 73 74 73 73 73 73 74 72 71 70 69 69 66
24 24 24 25 28 30 32 34 37 39 39 40 38 37 37 34 33 34 37 44 52 54 56 60 60 57 56 63 77 92 98 94 87 85 84 83 80 77 75 76 77 76 75 74 73 73 73 73 72 70 69 68
28 27 27 25 27 28 30 32 35 37 38 38 37 35 35 34 34 34 33 35 42 45 44 51 58 59 56 56 62 75 93 99 94 88 85 85 86 85 81 79 79 79 78 78 76 75 75 74 73 71 70 69
31 31 31 30 28 27 29 31 32 33 34 37 38 36 34 35 35 34 34 33 34 36 35 38 47 57 60 57 54 59 76 94 98 94 91 87 86 86 87 85 82 82 81 80 79 77 76 75 74 72 71 70
31 31 32 33 34 33 33 34 35 35 35 37 39 39 37 36 36 35 35 35 34 35 35 35 44 60 68 64 57 52 58 75 92 99 97 94 89 87 87 86 82 81 80 81 81 79 77 76 74 74 73 72
28 29 30 34 39 41 41 41 41 40 39 40 39 39 40 38 36 37 38 37 37 38 36 36 46 62 70 71 65 57 54 59 75 93 100 99 96 92 90 89 86 83 83 84 82 80 78 76 74 73 73 72
28 29 31 37 45 47 48 47 45 43 41 40 39 38 39 40 38 38 40 40 38 39 39 36 41 51 58 66 71 68 64 61 63 75 89 98 99 97 96 95 92 89 88 87 86 83 78 74 71 69 68 67
32 34 39 46 51 52 52 51 49 47 44 40 40 39 38 40 40 40 40 41 40 40 40 38 38 41 44 52 62 66 67 69 67 65 73 88 99 99 97 95 94 92 90 90 88 82 75 67 63 60 58 58
38 42 47 49 50 51 53 54 52 51 49 44 42 41 41 41 41 43 42 41 42 42 42 41 39 40 41 42 49 59 62 68 74 73 69 77 92 98 96 92 92 92 89 89 85 80 78 70 67 64 52 50
42 45 43 41 42 46 50 51 50 52 52 48 44 44 44 44 45 45 45 44 43 44 44 43 42 40 41 40 44 55 61 63 70 77 76 75 85 96 98 92 88 87 86 87 84 81 79 67 70 78 61 50
45 43 39 41 44 48 52 54 55 56 55 50 45 45 46 48 49 48 49 48 45 46 46 45 44 42 41 41 43 50 59 62 63 72 79 78 82 91 99 97 89 85 84 85 83 80 76 65 70 78 61 52
45 43 43 51 57 61 64 65 64 62 58 52 47 46 47 50 53 52 52 52 49 49 48 48 47 45 44 42 43 46 52 58 60 63 71 78 84 88 96 100 96 92 88 86 83 78 74 68 67 65 51 49
46 45 47 52 60 66 69 70 69 63 56 50 47 46 49 53 55 56 56 55 54 52 51 50 49 48 47 45 45 44 45 50 55 59 64 73 83 87 91 98 100 99 95 91 87 82 78 69 60 51 45 47

ECMWFFLT2_925_rhum_021.txt.gz
RH
58 60 70 81 90 94 95 98 94 94 95 93 88 81 78 76 75 76 75 75 76 76 72 72 70 69 68 66 66 64 67 67 66 70 80 84 77 79 86 86 82 85 90 82 69 58 35 4 14 40 45 62
42 45 53 62 73 79 81 88 91 94 95 96 98 92 87 83 81 79 76 73 74 75 73 73 72 71 70 68 67 66 67 67 66 67 76 86 83 82 85 84 83 84 89 87 72 63 49 14 3 15 19 46
22 26 32 39 50 61 67 73 76 82 86 88 92 91 90 88 86 84 81 76 74 74 73 73 71 71 71 70 69 67 68 68 67 67 71 83 85 84 84 82 83 84 89 89 75 66 56 21 2 3 0 28
12 13 15 17 21 30 42 53 57 64 72 77 80 81 84 87 88 88 86 82 77 75 73 73 73 71 72 71 70 67 68 69 69 69 70 77 84 85 82 80 83 85 91 91 80 72 52 19 7 8 -0 14
12 10 10 11 9 10 15 22 28 35 46 59 71 75 76 78 83 87 89 89 85 81 77 76 76 74 73 71 70 69 67 69 69 69 69 73 80 84 81 81 85 85 90 92 87 78 50 26 25 27 25 27
13 12 12 12 11 10 8 8 10 12 17 28 44 60 70 73 75 79 83 88 91 89 85 80 78 77 75 72 71 69 68 70 69 66 67 70 75 81 83 82 86 87 89 93 92 83 58 39 42 46 51 55
14 13 14 14 14 13 11 10 9 7 7 8 14 25 42 56 65 71 74 79 87 93 94 88 84 82 78 76 73 69 67 68 69 65 63 67 71 77 84 84 89 90 89 96 94 83 70 54 52 57 60 65
18 15 14 15 16 16 15 13 12 10 8 7 7 8 14 25 39 55 64 70 77 84 93 95 94 90 83 80 75 68 66 66 66 64 63 66 68 73 80 82 88 91 89 97 97 83 77 67 60 63 65 65
23 21 17 15 16 18 18 17 16 14 12 10 8 8 11 13 17 29 45 59 67 70 79 89 94 94 88 83 78 71 66 64 63 61 64 66 66 68 76 81 84 91 91 95 97 87 80 74 67 65 67 68
22 23 21 18 16 18 21 20 20 18 17 15 11 9 10 14 17 21 30 43 55 60 67 74 81 88 91 89 85 78 69 63 61 58 61 65 64 63 70 80 83 88 90 92 94 91 84 77 72 69 69 67
19 21 22 21 16 17 21 23 24 22 20 19 17 14 10 15 23 29 33 37 44 52 59 64 68 76 85 90 91 85 77 68 62 59 59 63 64 61 66 76 84 88 88 88 91 92 88 80 75 73 72 68
17 19 21 21 18 17 20 25 29 27 25 22 20 19 15 14 20 32 38 39 42 46 52 58 62 67 74 83 88 89 85 77 69 62 59 61 62 61 63 71 82 89 87 86 87 89 88 83 80 75 72 69
17 18 20 20 19 18 20 26 31 32 29 26 24 24 21 15 14 25 38 42 43 45 48 52 57 62 66 71 79 86 89 85 78 70 63 61 60 59 62 67 77 86 88 85 85 86 86 84 82 78 72 70
18 19 20 20 19 19 21 25 31 34 33 30 28 28 28 23 17 19 32 42 41 43 46 48 52 57 61 64 68 76 84 88 87 80 72 65 60 58 60 65 71 80 86 85 86 86 86 84 82 79 75 72
20 21 21 22 21 21 23 27 32 36 35 33 32 33 34 32 26 19 26 37 37 39 44 47 49 52 55 59 63 68 77 88 94 89 81 74 67 61 58 61 68 76 82 85 86 87 86 85 83 81 78 74
21 22 23 24 24 24 25 27 31 34 34 33 33 36 37 37 33 25 26 34 33 32 38 44 48 50 51 54 59 63 70 84 97 98 89 82 77 72 64 60 64 73 79 82 84 87 87 86 85 82 78 74
22 23 25 26 27 27 26 26 28 30 31 32 33 35 38 39 36 31 31 33 32 31 32 37 42 46 49 51 54 57 62 73 88 99 98 90 84 81 77 69 65 71 78 81 82 85 87 87 86 83 78 72
23 25 27 28 29 30 29 28 28 28 29 30 32 34 35 36 35 35 34 33 32 33 32 33 35 38 42 46 50 53 56 60 70 87 99 99 92 86 86 83 74 71 75 81 84 86 87 88 86 82 76 71
23 24 26 26 26 27 29 32 32 31 32 33 34 36 35 33 34 34 35 34 34 34 34 34 34 35 37 38 42 47 52 54 57 68 86 99 100 93 88 88 85 78 75 78 83 85 86 86 84 80 74 70
24 24 25 24 23 22 25 32 39 40 40 41 40 40 40 38 38 37 35 36 35 35 36 36 36 36 37 36 37 41 47 53 56 57 66 85 99 100 92 87 89 87 82 78 78 80 82 83 80 78 73 69
26 27 27 25 25 24 23 30 41 45 43 43 43 42 42 42 43 42 39 38 37 37 37 38 38 38 38 38 39 44 50 55 59 59 59 71 88 101 99 91 90 91 90 85 80 78 78 79 77 75 73 70
30 31 31 30 30 30 29 33 39 41 40 39 39 41 42 42 41 42 42 40 39 38 38 40 40 39 40 39 39 47 56 60 62 63 63 66 75 90 101 99 93 90 90 90 88 84 79 77 77 74 73 71
34 35 35 36 37 38 39 40 41 39 37 35 34 35 40 43 42 40 41 40 39 37 38 41 41 40 41 41 39 41 50 58 64 66 65 66 69 78 92 99 100 93 88 90 92 91 87 82 80 77 76 74
38 39 41 43 45 45 43 42 41 38 35 33 31 30 33 41 44 41 41 41 40 40 40 42 42 41 41 41 42 41 43 46 52 59 62 65 72 78 83 89 98 100 95 94 94 93 93 90 87 84 81 78
41 42 46 49 48 45 42 40 40 40 38 36 35 32 31 37 43 43 43 44 43 43 44 43 43 42 42 43 43 43 43 42 41 46 52 57 69 81 86 85 89 99 100 99 99 98 95 92 90 88 86 82
42 45 47 49 47 42 39 37 41 47 50 49 45 41 41 43 46 45 44 46 47 47 48 47 46 45 44 46 47 44 44 45 42 40 43 49 59 73 87 89 86 95 102 99 98 97 95 94 89 85 83 82
42 47 48 48 46 42 39 36 38 46 53 57 53 46 50 52 50 46 45 48 50 49 49 50 50 49 46 47 51 49 45 46 46 43 41 44 53 65 82 91 87 90 99 99 95 95 97 96 92 89 84 78
42 48 49 49 48 43 41 38 38 44 49 53 53 52 54 53 49 46 45 47 50 48 46 50 52 51 50 50 53 54 50 48 47 46 43 43 50 61 79 93 91 89 95 100 98 97 98 96 96 98 91 83
50 54 53 52 51 47 45 44 45 50 53 53 57 60 57 52 50 52 53 53 55 54 52 55 57 56 56 55 57 59 57 54 49 46 47 46 45 52 70 86 93 94 95 100 99 97 96 93 97 97 89 90
60 65 68 67 64 59 56 56 56 55 55 56 61 64 60 56 55 58 60 60 60 60 58 59 57 58 60 59 61 63 63 61 56 51 48 46 44 46 58 75 92 99 96 98 100 99 95 89 92 91 84 90
62 70 78 79 77 74 67 65 61 54 52 56 63 64 60 58 57 57 57 58 62 64 63 62 61 62 64 63 62 64 68 68 64 60 51 46 46 45 51 71 93 99 96 99 98 98 99 94 94 93 86 86

ECMWFFLT2_925_rhum_024.txt.gz
RH
23 24 29 38 47 53 63 70 65 64 72 79 81 83 83 85 88 86 86 88 90 90 89 89 86 82 77 72 66 63 65 67 67 67 72 80 86 89 85 89 91 91 95 86 73 66 62 50 32 44 68 74
15 16 18 21 24 26 35 49 54 47 43 55 66 71 77 80 82 85 86 87 88 90 92 92 91 85 80 81 75 67 66 68 69 68 70 72 83 90 84 88 92 93 96 89 77 66 63 44 20 28 56 76
14 13 14 15 16 16 16 20 35 42 30 28 35 42 56 69 76 79 81 84 86 88 90 91 93 91 86 85 80 74 68 68 70 68 71 69 77 88 84 87 93 97 96 91 79 68 67 42 14 15 32 66
18 15 13 13 14 16 17 13 16 26 27 23 21 20 26 42 60 69 71 75 79 83 87 89 90 91 91 91 86 82 72 69 70 68 71 70 74 84 85 89 94 98 96 93 80 71 71 42 16 13 15 45
20 18 15 13 14 15 18 20 17 15 18 18 18 17 15 19 31 42 52 58 64 72 81 86 89 88 89 92 92 90 80 74 73 70 71 71 74 78 83 89 91 94 96 95 84 75 71 48 29 19 7 20
19 19 18 15 14 15 17 21 23 19 17 15 13 15 14 13 14 19 28 36 40 47 61 76 85 88 88 88 91 92 90 85 78 73 71 70 75 74 77 85 86 85 92 98 89 79 72 62 47 32 23 11
17 17 17 16 14 14 16 20 24 25 22 20 18 16 14 12 12 13 16 19 20 22 32 48 65 79 86 87 88 91 94 93 84 81 74 64 69 73 71 77 83 82 88 99 95 83 76 70 54 42 50 37
16 16 15 15 15 14 15 18 23 28 28 26 23 21 19 16 13 12 12 12 14 14 14 20 32 50 68 80 86 88 91 94 90 91 86 69 66 70 69 72 79 82 87 99 98 88 82 73 56 48 61 62
15 15 15 14 15 15 15 17 22 27 32 32 28 26 24 23 19 14 12 10 10 12 12 10 12 20 35 55 72 81 85 90 90 90 91 83 74 67 64 70 76 79 84 95 99 92 87 76 58 54 62 67
15 15 16 15 14 14 14 16 20 24 31 35 33 29 27 28 25 20 16 13 11 9 10 10 9 10 13 26 48 68 77 83 88 87 87 85 81 71 61 64 71 78 82 88 97 95 91 81 63 58 64 68
15 15 15 16 16 15 16 15 17 20 26 33 36 32 29 31 31 29 24 18 16 14 11 9 8 9 9 14 28 50 66 74 82 86 87 83 81 79 70 64 67 75 81 82 92 96 92 87 72 64 65 68
14 16 16 17 18 17 18 17 16 17 20 26 32 33 32 34 36 36 34 25 23 23 21 15 10 9 8 10 15 30 51 64 73 81 88 87 82 82 80 76 70 71 79 83 87 93 94 89 79 71 67 67
16 17 17 18 20 21 22 21 19 18 18 21 26 30 31 34 36 39 39 32 27 28 29 26 20 15 11 9 10 15 32 51 64 72 82 90 89 86 84 84 82 77 77 81 86 91 93 91 85 79 73 68
18 18 18 19 22 23 25 25 25 23 20 21 23 26 30 32 35 37 38 35 31 30 31 32 29 26 21 18 16 16 23 37 53 63 73 85 93 94 90 86 87 90 86 80 84 91 93 91 88 85 80 73
21 21 20 20 21 22 23 23 25 26 26 25 24 26 29 32 36 38 36 34 34 33 33 32 32 31 30 28 27 27 30 35 45 54 63 75 88 97 99 92 87 91 96 88 82 87 93 92 89 87 84 79
24 23 22 22 22 22 22 21 21 24 29 32 31 30 31 33 38 41 39 37 36 35 34 34 33 33 33 32 31 32 35 39 43 48 54 62 76 89 98 100 93 88 95 98 89 85 89 92 91 88 85 82
25 26 26 24 24 24 23 23 22 22 30 38 39 38 38 39 39 41 40 41 42 38 35 35 35 35 35 34 33 33 34 37 40 45 49 53 61 75 89 98 99 92 90 96 98 93 90 91 91 90 87 83
26 28 28 28 28 28 27 27 26 24 28 35 39 39 40 40 41 42 42 42 45 44 39 37 36 36 37 36 36 35 34 34 36 40 45 50 53 61 75 88 98 99 92 90 97 100 96 93 91 90 88 84
27 30 32 32 31 31 31 30 30 29 29 33 35 35 35 35 36 38 41 42 43 45 44 43 41 38 39 39 38 38 37 36 35 38 43 49 53 54 63 76 90 99 98 91 91 96 100 97 93 91 89 86
25 29 33 35 35 35 36 36 35 35 35 35 33 32 32 31 31 32 35 39 41 42 42 45 44 40 40 42 41 38 38 38 36 40 46 51 55 56 57 65 80 94 100 97 91 91 98 100 96 92 90 87
25 26 31 36 40 39 40 41 39 39 37 36 33 32 31 28 28 28 28 31 37 42 41 41 43 40 41 43 44 41 39 40 39 40 46 53 58 60 58 58 69 85 97 100 96 94 94 98 99 94 91 88
35 32 31 36 41 42 44 43 40 40 37 35 34 32 31 30 30 28 27 26 30 40 43 41 41 41 41 44 47 44 41 41 41 41 42 46 52 59 62 60 62 73 90 99 99 99 97 96 99 97 93 88
39 38 37 43 47 45 45 45 43 42 39 36 35 33 31 32 33 32 31 28 29 40 45 43 42 42 42 46 50 47 45 45 44 43 42 41 43 49 58 61 61 65 78 93 99 100 99 99 99 99 97 92
44 45 48 54 56 53 50 50 49 44 40 38 35 33 30 30 34 37 37 38 41 46 47 46 47 46 45 48 51 50 48 48 48 45 44 44 41 42 49 55 61 63 70 86 97 99 100 100 100 99 100 97
53 54 57 61 62 62 60 60 59 50 42 39 36 35 32 29 33 42 47 49 50 48 46 48 50 50 49 49 50 50 49 50 54 52 46 45 44 43 47 53 57 62 74 90 98 100 99 100 100 100 100 100
48 50 56 64 66 67 69 70 68 61 50 43 39 38 37 33 33 40 50 52 50 47 46 49 51 51 48 47 50 52 51 53 59 60 53 49 47 45 48 54 54 56 76 97 99 97 100 99 100 99 99 100
40 42 51 62 67 69 74 74 73 71 64 55 47 44 43 40 34 36 48 54 51 49 49 53 57 56 52 51 54 56 56 57 62 65 62 56 51 46 51 59 56 50 66 90 97 97 100 98 98 98 97 97
37 44 54 60 63 67 74 76 74 71 69 65 58 51 48 44 37 41 54 59 54 52 54 59 60 59 59 59 60 61 61 62 65 69 69 66 59 54 59 64 59 52 57 74 91 99 97 94 98 98 94 95
40 50 52 51 50 53 61 67 71 72 72 71 65 58 52 46 42 48 59 60 56 55 57 60 60 62 66 69 70 69 68 64 63 66 70 72 69 64 63 59 57 61 63 65 77 94 97 95 99 95 89 94
43 47 42 40 41 43 45 50 59 65 68 67 62 57 52 50 49 52 59 61 58 57 58 59 58 65 73 74 74 73 72 70 67 66 67 71 74 72 66 60 64 71 71 67 70 82 93 97 100 96 92 95
42 41 36 37 41 43 42 42 45 49 53 53 51 50 49 50 53 56 61 61 59 61 65 64 61 66 72 68 63 60 61 65 69 73 73 73 77 79 74 73 79 78 71 76 80 78 84 92 98 100 99 97

ECMWFFLT2_925_rhum_027.txt.gz
RH
34 36 46 52 56 56 57 64 65 64 60 56 54 53 60 69 70 70 75 82 86 88 89 91 91 88 85 82 78 82 86 78 73 68 69 76 80 78 76 87 94 93 98 94 77 67 64 58 50 45 42 56
23 24 29 34 38 40 43 46 44 43 37 39 46 41 36 50 62 61 61 64 71 81 86 88 90 92 93 91 86 87 83 78 79 74 70 73 77 77 73 79 89 92 98 96 80 70 67 61 48 41 39 46
14 15 16 18 19 21 27 30 28 25 18 18 26 28 21 23 37 44 47 48 50 59 73 83 87 90 93 94 96 94 85 79 79 78 77 75 74 78 77 78 89 93 96 98 85 73 68 64 49 37 34 37
11 12 11 11 12 13 16 18 19 18 15 13 12 15 15 12 14 18 23 29 32 33 42 57 70 79 86 91 94 93 90 84 79 84 87 81 75 78 80 80 89 93 95 99 89 77 68 64 54 39 31 28
12 12 11 11 11 12 12 14 16 15 13 14 13 11 12 12 12 12 11 12 16 16 17 23 33 45 57 70 83 89 90 88 84 89 92 87 81 81 86 85 86 87 93 97 89 83 68 60 60 47 31 20
12 12 12 12 12 12 12 13 14 15 15 15 15 14 12 13 13 14 14 12 10 10 11 11 13 17 22 30 48 66 76 85 89 89 86 85 84 82 87 89 85 80 91 98 89 87 71 58 58 47 33 16
13 13 13 13 13 13 13 13 14 15 17 19 19 17 16 16 15 15 15 14 12 10 10 10 11 13 14 13 17 28 39 57 77 87 87 83 81 83 85 88 86 77 86 98 90 88 77 66 54 39 34 20
15 15 14 14 14 14 14 14 14 15 17 20 21 20 21 21 19 19 19 17 14 12 12 10 10 11 14 14 11 13 15 24 40 58 75 83 83 84 85 88 91 81 83 94 90 87 80 75 58 35 41 32
17 17 16 16 15 15 15 14 15 15 17 19 21 21 23 26 24 24 23 18 16 15 15 12 11 10 11 13 11 10 11 13 17 22 38 61 78 86 87 86 93 91 85 87 87 88 83 80 66 37 44 47
20 20 19 18 18 17 16 16 15 15 17 18 20 21 22 24 26 32 32 25 20 18 19 18 15 12 10 11 11 10 9 10 13 14 15 27 51 77 88 82 88 97 91 84 83 87 85 83 75 46 43 58
21 23 22 21 20 19 19 18 17 16 16 18 19 21 23 25 26 32 39 37 32 27 26 25 22 17 13 12 11 11 11 11 12 13 14 14 23 48 77 84 83 93 97 91 82 82 87 86 83 63 48 62
18 24 25 24 23 22 22 20 19 18 16 17 20 24 25 26 27 30 35 39 40 39 36 32 29 24 18 15 13 12 10 13 15 15 15 16 16 22 50 78 84 88 94 97 91 84 87 88 87 76 60 64
16 19 23 26 27 25 24 23 22 21 18 17 20 28 31 30 31 32 34 35 37 39 39 37 34 30 26 21 17 15 12 12 18 22 22 21 23 23 33 60 80 86 89 96 99 93 90 89 88 82 72 68
19 19 22 26 29 28 27 26 26 24 22 20 19 25 33 36 36 36 37 37 36 36 38 40 37 34 32 30 25 21 17 15 16 24 30 30 32 36 39 51 70 83 87 93 100 99 95 91 90 87 81 75
23 23 24 27 31 31 30 29 29 28 25 23 21 22 27 33 37 38 39 39 40 40 40 43 42 38 35 34 33 30 25 21 18 20 28 35 38 42 47 53 65 79 86 90 95 100 99 94 92 90 86 82
23 23 25 27 32 33 33 33 31 31 29 27 24 23 24 26 29 33 36 37 39 41 42 44 45 44 41 38 37 36 34 29 25 23 24 31 37 41 47 53 62 76 87 89 90 95 100 98 95 92 88 85
28 25 24 26 30 34 36 36 35 34 33 32 29 28 26 24 25 26 29 31 34 36 39 43 44 45 44 42 41 40 39 36 32 29 26 26 30 37 43 49 55 67 83 90 90 90 95 99 98 95 90 86
34 32 29 26 28 33 38 39 39 38 36 35 33 32 31 28 27 25 25 26 28 30 32 36 40 43 44 42 43 43 42 40 37 33 30 28 26 30 38 46 52 58 71 85 92 90 89 95 98 98 94 88
33 34 34 32 30 32 40 42 42 42 40 39 38 37 36 33 31 29 26 25 25 27 27 29 34 40 42 41 41 43 44 43 41 38 35 32 30 28 33 43 51 55 61 73 86 92 91 91 93 99 98 92
24 24 27 30 32 34 40 46 48 48 46 45 46 43 40 36 34 31 29 27 25 27 27 26 30 38 41 41 41 41 45 46 44 42 40 37 35 32 31 38 49 55 57 62 73 88 96 94 92 97 99 95
18 16 16 17 22 27 35 46 53 55 54 56 56 49 41 37 35 32 30 29 27 28 32 34 36 41 43 43 43 42 44 48 47 46 45 42 39 38 35 35 43 52 57 59 63 75 90 98 97 95 96 98
25 23 20 17 19 23 28 38 47 48 49 54 58 54 44 37 35 33 31 29 31 34 41 47 47 46 47 46 45 45 46 48 47 47 47 46 43 42 40 38 38 44 54 59 61 68 78 92 100 97 96 99
28 26 27 32 38 45 48 52 55 56 55 53 54 60 57 47 40 37 35 31 32 41 50 54 50 47 49 50 49 48 49 50 48 45 46 50 50 46 43 42 39 39 46 56 63 68 74 84 94 98 99 99
29 27 29 38 54 63 64 64 67 70 71 66 60 59 61 60 51 42 40 36 30 36 48 54 53 48 47 51 53 51 50 51 50 48 48 51 54 53 48 44 43 40 42 53 63 66 72 81 88 94 99 100
31 30 33 45 60 61 55 52 55 60 65 73 73 63 58 61 59 51 46 42 34 34 45 54 56 53 49 51 54 53 52 53 53 52 51 53 58 60 57 51 46 42 50 71 79 74 73 78 87 95 98 100
31 31 34 44 51 46 40 39 41 47 54 65 71 64 57 57 61 59 53 48 39 36 48 59 60 57 55 55 56 56 56 59 61 59 56 59 63 65 64 62 55 46 59 86 90 85 85 85 91 98 100 100
30 31 31 34 37 35 35 35 37 43 47 53 57 58 58 58 63 62 58 54 43 37 46 58 63 60 59 59 60 59 59 64 67 63 59 61 66 69 69 69 64 54 55 70 78 89 95 89 91 96 97 100
32 33 32 32 33 34 34 34 37 41 43 46 48 52 55 55 57 56 54 52 45 40 44 56 63 60 59 61 62 65 68 70 70 65 62 63 68 76 83 80 72 61 53 53 65 84 89 84 90 90 90 96
36 37 35 36 36 37 38 38 41 43 44 45 45 49 52 53 53 52 52 51 48 42 40 54 63 60 63 65 64 69 73 72 70 69 67 68 71 79 89 91 83 73 64 57 59 69 75 81 93 90 88 96
38 40 38 39 41 41 44 45 46 47 46 46 47 50 53 55 56 53 51 51 51 44 37 48 61 64 68 69 65 68 68 63 61 64 64 66 72 77 85 94 95 89 77 67 64 67 69 76 90 96 96 97
40 41 39 40 42 45 47 48 48 48 48 48 49 54 55 53 54 53 52 52 54 52 44 46 61 70 71 68 64 62 61 56 52 53 54 55 61 69 79 92 100 98 90 81 74 71 70 69 75 88 99 99

ECMWFFLT2_925_rhum_030.txt.gz
RH
27 36 42 43 46 43 40 47 53 56 60 58 55 61 65 57 43 33 33 40 51 67 81 91 96 97 98 97 96 96 96 94 89 87 86 83 87 87 88 97 92 92 96 94 89 71 57 62 59 48 54 68
15 20 24 27 31 27 22 25 28 29 34 35 33 38 46 47 41 33 23 18 24 36 49 67 81 90 95 96 97 97 96 98 94 94 94 84 86 91 89 92 93 95 96 93 87 75 62 61 61 50 51 64
13 12 14 17 19 18 17 16 15 16 17 18 19 22 28 30 30 29 25 19 16 17 22 32 45 60 70 74 84 91 88 93 98 98 97 89 86 90 90 91 90 90 94 93 87 79 68 61 60 49 50 62
14 13 12 13 13 13 13 12 12 13 14 16 17 18 21 24 25 24 22 20 16 12 12 13 16 22 29 30 47 72 77 80 92 96 95 94 94 90 86 92 94 90 89 91 89 85 73 61 54 47 53 63
17 16 14 14 14 13 13 12 12 12 12 13 15 17 19 19 20 23 23 20 17 13 10 10 10 10 13 11 14 37 51 60 72 81 90 92 92 91 84 86 93 93 89 92 95 90 79 61 47 48 58 61
28 25 24 22 18 16 14 13 13 12 13 13 13 15 17 17 16 20 23 21 18 17 14 11 11 9 10 13 10 13 21 34 42 49 71 84 84 87 85 82 87 93 93 97 99 93 83 65 50 50 53 54
32 34 34 32 29 27 22 19 17 14 13 12 13 14 14 16 15 16 20 22 20 18 18 15 15 12 9 10 11 11 10 17 21 20 37 56 64 72 81 84 83 89 96 99 96 92 84 70 61 55 46 43
33 36 35 35 35 35 32 29 27 23 21 16 13 14 14 15 16 16 17 18 18 16 17 18 17 16 14 10 9 11 10 10 13 12 15 24 33 46 66 81 85 85 90 99 95 88 85 79 70 62 51 35
34 35 34 35 34 36 35 33 34 35 36 30 19 16 15 14 14 15 16 15 15 14 14 16 16 17 17 15 11 10 11 10 10 11 11 11 15 26 43 61 78 86 86 94 96 89 84 82 76 68 64 39
32 33 33 36 36 37 36 34 36 37 38 39 36 33 29 26 23 19 17 15 14 14 14 14 14 16 18 20 18 13 10 11 11 11 10 10 10 17 32 43 57 73 85 92 92 91 86 81 79 73 74 57
29 30 31 36 39 38 39 37 36 37 38 41 43 43 42 41 40 37 33 25 19 17 15 15 16 16 17 19 20 19 15 12 13 13 12 13 11 11 23 38 49 55 67 87 92 92 90 84 82 74 75 68
27 29 30 35 38 38 42 40 38 40 41 41 41 42 43 43 43 44 45 41 35 31 23 17 17 17 18 19 20 23 22 17 15 14 14 17 17 19 21 29 51 59 53 67 88 95 93 88 86 80 77 69
29 30 31 33 35 37 42 42 42 43 42 42 40 42 44 41 40 39 42 44 44 45 41 34 26 22 22 22 21 23 24 23 19 16 19 23 22 29 33 25 37 64 67 60 69 85 92 92 89 81 78 73
30 31 32 34 35 36 41 45 47 44 42 44 42 43 46 43 41 39 39 40 41 43 48 49 45 41 33 28 28 27 25 24 24 21 20 26 27 29 38 37 30 47 75 77 67 67 77 88 89 85 79 74
30 31 34 37 37 37 42 46 48 45 42 46 45 46 48 45 43 41 40 41 41 40 42 46 49 52 48 43 46 46 39 30 27 27 23 24 29 30 33 40 36 35 57 81 85 73 67 74 82 87 83 73
30 31 33 34 34 38 43 43 46 47 45 46 46 47 49 48 45 44 42 41 43 42 40 43 45 50 52 51 53 55 54 45 35 31 29 25 26 28 28 30 34 37 43 61 84 91 82 78 80 85 85 79
29 30 30 29 29 32 38 39 43 48 49 49 49 49 51 51 49 46 44 43 45 44 41 42 44 46 48 49 52 55 58 57 52 46 40 33 26 25 26 27 29 35 43 50 67 87 96 95 91 90 90 87
28 29 28 28 28 28 32 34 37 45 51 54 54 54 55 55 53 49 47 47 46 45 43 42 43 45 44 47 52 55 57 58 60 60 55 47 37 30 25 27 28 31 41 48 54 69 89 100 100 98 97 93
29 29 27 28 29 29 32 32 32 39 49 54 55 55 56 57 57 53 50 50 49 47 46 44 43 44 44 47 52 54 56 58 58 57 58 56 51 42 31 27 27 29 36 40 46 54 67 86 98 100 100 98
31 31 29 29 30 32 34 35 35 39 44 49 51 51 52 55 59 57 53 51 50 48 46 47 46 46 49 51 53 55 58 59 56 56 57 57 56 51 42 35 28 27 31 34 41 50 54 64 83 96 100 100
32 31 30 29 32 35 37 39 40 40 41 46 49 49 48 53 58 59 57 55 52 49 46 48 49 50 54 54 54 59 62 58 55 57 59 57 56 55 51 47 39 31 30 30 38 53 57 53 59 76 92 100
33 32 30 31 33 36 38 39 37 33 33 37 40 44 49 55 58 59 60 58 54 51 48 46 48 52 55 56 56 60 63 61 60 60 61 59 56 55 54 51 49 45 41 41 48 55 54 51 56 62 71 87
35 33 32 33 35 37 36 33 31 29 29 28 29 35 45 55 57 56 60 62 56 52 51 47 46 50 56 58 57 59 62 61 61 61 64 64 61 59 56 53 51 51 50 52 60 63 53 46 54 63 63 68
34 34 33 33 35 35 32 29 30 30 28 28 29 32 37 46 52 52 55 62 61 55 53 50 48 49 55 60 59 60 61 59 59 62 66 67 65 63 60 58 55 51 52 51 55 65 64 50 41 46 55 61
33 34 33 34 36 34 30 30 30 29 28 30 33 34 36 39 45 51 55 61 64 60 57 54 50 50 54 59 60 61 61 62 64 67 70 70 67 66 62 58 53 52 53 53 50 49 52 55 52 46 44 57
33 33 33 34 37 35 31 31 30 29 30 33 36 37 39 39 41 48 53 56 59 60 62 59 54 50 53 59 60 61 63 66 68 69 71 73 68 63 62 56 52 51 52 53 50 43 40 45 54 63 59 61
34 34 34 35 38 37 33 32 31 32 34 37 38 38 39 40 41 43 46 49 51 54 57 58 56 52 51 58 59 58 60 62 65 67 68 72 69 62 59 56 56 56 52 48 43 43 48 41 36 53 70 73
37 36 37 39 41 40 38 36 35 36 36 36 37 39 40 40 41 44 47 48 47 48 50 51 54 54 51 56 60 58 59 59 62 66 68 70 72 67 60 55 57 59 55 51 44 39 44 44 39 41 48 61
37 37 39 40 40 40 39 38 38 36 36 37 37 39 40 38 39 40 40 44 46 45 48 48 49 52 52 55 61 60 59 57 59 66 70 71 72 69 64 58 56 56 58 59 52 44 39 40 47 46 44 54
39 40 40 40 40 40 40 39 39 37 36 38 38 37 37 36 37 35 32 37 45 45 46 48 47 50 51 55 62 61 56 56 58 62 68 71 72 70 69 69 66 62 62 64 62 56 49 44 44 47 55 64
45 45 44 44 45 45 44 42 41 39 38 39 39 38 38 36 34 31 28 33 44 47 44 44 46 50 52 56 62 60 56 57 57 59 67 73 74 72 69 72 76 75 70 66 65 63 61 58 57 57 61 64

ECMWFFLT2_925_rhum_033.txt.gz
RH
24 30 34 33 34 35 37 39 40 36 37 49 57 61 66 61 56 57 55 54 59 65 76 90 97 99 98 98 99 98 98 95 94 94 95 96 89 87 91 92 92 97 99 90 83 70 57 59 58 51 58 67
23 29 30 22 19 19 20 23 22 21 23 31 37 39 45 53 56 54 52 48 46 46 48 60 76 91 92 88 91 94 97 99 99 98 97 97 89 85 88 93 95 95 98 94 85 76 65 60 61 53 53 65
36 37 35 25 22 20 18 19 16 13 14 19 26 28 27 33 41 42 45 46 42 40 35 33 46 71 86 81 79 82 86 91 94 95 97 94 88 84 84 88 93 94 96 96 91 83 70 60 62 53 50 61
40 41 40 36 35 30 25 25 23 16 12 12 16 21 21 22 26 29 34 39 39 40 36 32 34 48 70 75 69 67 70 79 82 83 86 89 89 86 82 84 88 89 93 97 95 88 73 63 61 52 52 61
37 38 39 39 40 40 35 35 36 30 21 14 11 13 17 19 21 23 26 30 34 39 40 40 38 35 47 61 56 46 43 52 66 73 75 78 82 85 83 81 84 88 91 96 98 90 77 69 63 51 55 64
34 34 35 36 37 39 38 38 41 44 40 31 21 14 12 15 15 17 21 25 29 33 36 39 40 31 32 43 42 27 19 23 37 50 61 69 71 76 82 80 85 93 92 95 99 92 81 74 64 52 57 66
30 30 31 34 36 38 37 38 40 42 46 47 44 34 28 26 18 13 14 18 24 30 31 33 35 31 25 28 31 21 17 21 29 36 38 46 56 61 75 81 87 94 92 95 100 94 87 81 67 55 61 67
28 29 28 31 35 37 36 37 39 38 40 46 51 49 46 46 37 28 23 15 15 23 29 30 31 32 25 17 23 25 21 20 30 42 32 21 28 39 57 72 84 94 91 92 100 98 92 86 74 63 63 63
28 28 27 30 32 34 36 37 38 37 39 43 46 47 46 47 47 46 45 36 24 20 21 21 21 25 25 16 19 26 22 16 17 30 34 26 19 18 32 47 64 87 96 95 97 98 95 84 76 73 65 57
28 28 28 30 32 31 34 38 38 37 39 41 42 45 44 41 41 43 47 48 45 39 30 22 18 16 18 16 17 19 19 22 21 15 20 37 40 27 22 26 39 63 85 99 99 94 90 80 75 77 70 62
27 28 29 31 33 31 33 37 37 37 39 41 41 42 45 42 39 39 39 42 45 46 46 43 40 33 26 19 14 16 16 19 27 21 13 27 45 46 37 30 32 43 58 81 96 96 88 78 77 80 73 70
26 26 28 31 33 31 36 37 34 39 40 40 41 41 46 46 41 39 37 39 40 39 43 47 51 52 49 38 23 21 21 16 21 28 25 21 24 38 49 47 40 37 43 58 75 92 94 84 82 84 78 74
26 26 26 29 29 30 35 35 33 39 40 37 41 42 46 49 44 41 38 38 40 40 40 41 42 47 53 51 41 38 38 29 21 22 29 27 22 29 41 51 51 38 38 49 60 76 91 92 88 85 84 79
25 24 26 27 26 26 30 32 33 36 38 38 41 42 46 50 48 45 42 40 40 41 41 41 39 41 45 48 50 52 51 47 36 26 23 23 30 34 31 40 55 48 39 46 58 71 80 89 91 84 83 81
26 25 26 28 26 26 28 29 30 31 35 40 42 45 49 51 50 48 46 43 43 44 43 41 40 40 41 43 46 50 53 55 51 42 32 24 26 29 31 38 46 50 52 51 58 71 76 81 90 87 83 81
28 28 28 28 27 27 30 29 28 27 30 37 44 48 51 51 51 51 49 46 45 47 45 42 41 41 41 41 41 44 49 54 55 56 52 42 32 24 27 34 35 44 53 53 59 72 76 78 87 91 88 86
31 32 32 32 30 30 31 30 28 28 29 34 41 44 48 50 51 53 53 50 49 48 47 44 43 42 41 41 40 43 48 50 53 58 61 56 51 41 32 28 29 40 45 47 57 69 75 75 83 93 92 90
31 32 33 33 32 33 35 34 31 32 32 32 35 37 41 45 47 51 54 55 53 50 47 45 43 43 42 41 41 44 45 47 49 51 56 57 56 54 49 37 28 33 40 47 52 56 66 69 72 88 98 96
30 29 30 30 30 32 36 38 37 35 32 30 30 32 35 39 42 46 50 52 52 52 52 48 44 43 43 43 45 47 43 45 50 49 49 52 53 55 56 49 37 32 35 45 51 45 55 66 60 67 88 97
30 29 28 29 29 30 33 37 37 35 30 27 27 27 28 31 37 43 47 47 48 52 55 51 48 45 43 45 49 49 45 46 49 48 47 49 52 54 53 52 50 44 36 35 41 38 45 64 62 49 58 82
30 30 30 30 29 30 32 34 34 33 30 27 27 25 24 27 30 35 42 46 45 48 53 53 51 49 46 46 49 50 49 48 48 46 47 49 52 53 51 52 51 51 47 41 39 36 37 54 66 52 38 49
30 30 31 31 31 30 32 33 33 31 30 30 28 26 27 29 30 29 33 40 43 43 48 52 52 50 49 47 47 51 51 49 49 48 48 49 51 52 51 51 49 47 49 50 50 48 44 48 56 57 50 42
30 30 30 32 32 31 31 32 31 29 30 30 28 28 30 33 34 31 31 36 42 45 46 50 52 49 49 48 47 50 52 50 49 49 49 50 51 53 53 51 50 48 46 47 51 52 51 52 47 40 52 60
25 27 26 28 30 29 30 31 31 30 30 28 27 29 33 36 36 36 36 36 38 42 45 47 51 52 51 51 49 49 52 51 50 50 50 53 54 55 56 54 52 51 50 47 47 48 48 53 53 38 34 50
24 25 24 26 28 27 28 30 31 30 29 29 29 32 35 38 38 38 39 39 37 38 40 42 44 49 53 54 51 48 50 50 49 51 53 55 56 56 56 55 54 52 52 50 47 48 46 44 50 47 36 35
25 27 27 28 30 30 30 31 32 31 30 31 32 33 35 35 36 39 39 40 41 42 41 41 40 40 44 50 52 49 49 50 49 50 53 55 56 55 54 53 53 52 50 50 47 45 45 43 40 42 49 50
29 29 30 32 34 35 35 35 35 33 32 32 31 30 31 30 32 35 38 38 40 41 38 37 38 37 36 38 45 49 48 49 50 49 52 54 55 54 53 51 51 51 49 47 45 45 45 43 39 37 51 70
29 31 34 38 39 39 39 38 37 36 34 33 31 30 29 29 31 32 33 36 37 38 37 34 32 35 39 37 38 44 46 48 50 49 50 53 55 55 54 52 50 49 49 48 46 47 46 40 39 39 39 53
37 38 41 43 42 42 40 39 39 38 37 36 34 33 30 29 29 30 31 34 36 36 36 34 30 31 40 42 39 40 41 44 48 50 50 52 55 56 55 54 51 48 46 49 48 46 46 43 42 42 36 37
49 47 47 46 45 44 43 42 41 40 39 37 36 34 33 32 30 30 31 32 33 33 34 33 29 34 43 45 43 42 41 41 46 50 50 50 52 54 56 56 54 51 47 46 48 49 49 46 43 40 41 47
53 50 48 47 47 47 45 44 42 41 40 39 39 38 37 35 33 32 32 32 30 29 32 33 32 39 44 44 43 43 43 42 46 50 49 48 50 53 56 58 56 55 53 50 48 51 53 52 49 44 44 50

ECMWFFLT2_925_rhum_036.txt.gz
RH
51 53 53 56 57 55 55 56 49 42 39 37 35 32 37 42 46 53 61 68 70 70 69 73 86 92 92 92 94 97 98 100 99 98 97 95 92 89 87 91 94 96 98 94 93 77 60 62 57 59 69 69
44 49 49 52 55 52 50 54 51 43 30 24 28 26 25 28 31 33 37 49 60 65 61 58 65 77 85 85 85 88 89 92 96 98 99 98 94 94 92 91 93 96 98 95 90 79 64 62 59 59 67 69
34 41 45 46 51 52 50 53 54 50 35 20 19 22 24 22 25 28 27 32 40 48 56 58 54 58 69 75 79 78 78 83 86 86 91 92 89 92 93 93 97 95 97 98 88 79 71 63 60 58 62 67
30 33 38 39 44 48 47 50 51 50 46 32 23 24 28 23 20 22 24 27 30 32 38 49 56 57 56 60 68 65 66 76 77 76 79 78 80 89 88 89 97 95 94 99 92 83 77 68 62 56 57 64
30 30 32 32 35 41 41 45 46 44 46 43 39 37 36 34 28 23 22 22 25 28 28 32 43 52 55 55 57 52 50 60 68 70 68 59 63 81 87 87 91 93 93 96 95 89 84 74 65 58 55 61
30 30 30 30 31 35 35 40 42 39 42 43 45 44 40 40 39 36 34 28 22 22 24 26 28 34 44 52 55 54 46 45 54 61 59 49 48 65 84 91 93 95 94 96 99 95 91 79 68 64 57 60
30 30 30 31 32 32 32 36 38 37 40 41 44 45 43 40 38 41 42 39 32 25 22 24 26 26 29 37 48 54 50 44 43 42 41 42 42 49 67 83 94 101 97 96 101 98 95 83 72 70 60 61
29 28 29 31 32 33 33 35 34 35 39 41 43 43 45 42 37 39 40 39 40 35 31 30 28 28 28 29 34 39 43 45 45 37 28 34 42 42 49 63 77 97 101 96 100 98 97 88 77 74 61 61
27 27 27 28 31 31 35 37 32 33 39 41 42 41 45 47 41 39 39 38 40 39 38 39 35 31 36 35 30 29 31 33 42 44 30 26 34 36 38 45 54 78 97 100 101 99 99 95 85 78 65 62
25 25 26 27 28 27 33 36 29 32 38 39 40 41 45 49 46 42 41 39 39 41 39 41 40 36 39 41 37 36 35 28 29 38 35 25 22 27 33 35 37 51 75 93 101 101 100 100 93 84 74 68
24 24 26 27 27 25 31 32 26 31 36 37 38 40 45 49 50 46 45 43 40 42 42 42 42 39 39 41 41 42 45 40 29 27 31 30 21 23 28 31 40 40 46 69 91 101 101 98 89 78 74 73
25 24 24 26 26 25 32 29 25 30 31 34 39 41 46 50 52 50 48 47 44 43 43 44 42 40 40 40 39 41 48 48 42 32 25 27 25 25 24 25 46 45 28 40 68 90 101 97 83 74 74 74
26 24 24 25 25 26 32 28 24 29 28 30 37 43 49 51 52 52 51 49 48 46 46 47 44 41 41 41 38 38 46 49 49 44 31 27 25 25 23 20 39 46 26 22 38 60 87 97 88 81 81 75
28 27 26 27 27 26 30 28 25 27 28 29 34 41 47 50 51 51 53 53 51 50 49 48 46 44 43 42 41 39 42 46 50 49 41 40 37 29 24 20 32 44 34 24 28 37 55 80 89 85 81 77
30 30 30 31 29 28 29 30 28 26 29 32 33 37 40 43 47 49 51 54 54 55 54 51 47 46 45 43 43 41 39 42 48 49 46 50 54 46 34 26 26 32 37 39 43 44 40 51 74 85 79 70
31 31 31 33 32 31 31 33 33 28 29 34 33 33 35 37 42 45 47 50 53 54 53 52 51 48 45 43 43 42 41 43 45 45 47 52 56 53 48 42 33 26 32 39 44 53 52 40 44 68 82 74
30 30 30 31 31 31 31 34 37 35 33 32 29 28 30 32 36 40 44 46 46 47 46 49 53 53 48 44 44 44 45 47 44 40 45 51 52 52 52 52 46 36 31 29 33 51 62 50 32 36 61 80
30 31 30 29 29 30 30 32 36 38 38 34 28 27 27 27 30 34 36 34 36 42 45 46 51 54 52 48 45 45 47 49 47 44 45 49 49 50 52 54 52 48 40 30 28 38 45 44 41 27 26 51
31 32 31 30 29 30 31 31 33 37 38 35 31 29 28 26 27 31 30 25 27 36 41 42 45 50 53 52 49 46 46 49 49 47 46 47 47 48 51 54 54 52 48 41 33 30 28 29 39 38 23 20
30 31 30 30 30 31 32 31 32 34 36 35 33 32 30 28 29 32 33 30 27 30 35 39 41 45 50 53 52 50 48 48 50 50 48 47 48 48 50 52 54 53 51 49 44 37 32 27 27 36 38 24
26 28 30 31 31 31 32 32 32 33 35 34 33 33 32 30 32 36 37 35 32 32 35 39 40 42 46 50 52 51 49 48 49 52 51 49 47 46 48 51 52 53 53 51 49 45 40 35 29 30 40 38
23 24 26 28 28 28 30 31 31 32 33 33 32 33 31 31 34 38 39 38 38 37 37 38 40 43 45 49 52 53 52 51 49 52 52 50 47 45 47 51 52 51 52 50 49 50 49 45 38 32 34 37
24 24 25 25 24 25 26 27 28 30 31 32 32 31 31 33 35 38 41 41 42 41 40 38 38 40 42 44 48 51 54 55 52 51 52 51 50 49 49 51 53 53 52 51 51 51 51 48 44 40 36 33
30 28 27 26 26 26 27 27 29 30 31 31 31 30 31 33 35 36 38 39 41 41 42 42 41 40 40 40 40 42 47 52 54 52 51 52 51 52 54 54 55 56 56 54 52 50 48 47 47 45 41 35
35 35 34 33 30 28 29 31 33 34 34 33 33 33 33 33 33 33 33 35 36 37 39 42 43 41 38 37 36 35 36 41 47 50 51 52 52 52 54 56 57 56 57 56 55 55 52 48 46 46 44 41
43 45 46 44 38 34 34 36 37 38 38 37 37 36 36 34 33 32 31 31 32 33 35 38 39 39 39 37 35 34 34 35 38 43 48 50 51 53 53 54 56 55 56 58 58 56 55 52 47 44 44 42
52 52 52 49 46 44 43 42 42 41 41 40 39 38 37 37 36 34 32 31 31 31 32 34 35 36 38 37 36 34 32 35 36 37 42 46 48 50 53 54 55 55 55 56 56 57 62 61 55 51 51 51
50 52 53 50 48 48 47 47 46 44 43 41 39 39 39 39 38 36 35 34 33 33 33 33 33 35 36 36 36 34 31 36 39 38 37 41 46 50 54 55 55 55 54 53 55 62 67 60 56 60 61 62
44 46 47 46 47 49 49 48 48 47 45 43 42 41 41 40 39 38 38 37 36 34 34 33 34 34 33 33 35 34 35 39 43 42 40 39 43 48 53 56 56 56 54 53 54 58 62 59 63 65 56 59
43 44 42 42 43 46 49 50 49 47 45 44 43 42 42 41 41 41 39 38 36 35 35 36 37 35 34 38 42 43 45 49 48 45 43 42 41 43 49 53 57 58 56 55 53 52 55 56 62 61 55 64
42 43 44 45 43 42 44 45 45 44 43 43 44 44 43 42 42 41 40 39 38 39 39 40 41 40 44 51 53 53 56 63 65 59 51 45 43 43 48 52 55 58 58 57 56 53 52 51 51 53 58 69

ECMWFFLT2_925_rhum_039.txt.gz
RH
46 51 49 56 58 57 63 63 62 65 65 64 63 64 60 48 48 59 61 62 67 69 67 71 84 88 86 88 86 83 92 97 97 96 96 99 99 99 97 95 95 97 99 96 94 74 58 60 54 56 66 68
35 45 44 47 52 52 57 60 57 59 60 60 57 51 47 42 37 42 47 49 58 62 58 59 69 84 86 86 84 72 75 85 88 88 88 92 96 100 99 97 98 97 99 97 94 79 62 60 57 60 66 68
25 35 34 33 43 45 46 51 51 52 56 56 54 47 38 36 34 36 38 35 43 49 51 54 60 75 78 78 82 69 63 69 75 78 80 84 86 94 98 99 101 98 100 97 93 84 65 59 59 63 68 68
21 26 24 22 29 34 33 33 35 41 48 48 48 47 40 35 33 35 39 35 34 35 36 45 54 69 73 68 70 65 62 61 62 65 70 78 79 82 91 98 101 99 101 99 96 91 69 58 60 62 69 69
21 21 19 18 21 24 24 21 21 31 40 42 44 46 44 41 37 35 39 38 38 36 30 35 42 54 66 64 61 59 59 60 59 57 56 66 72 71 80 93 100 99 100 99 100 99 79 63 60 59 66 67
21 20 18 17 18 20 21 18 16 25 36 40 42 47 47 45 42 39 40 39 39 41 36 35 34 38 51 55 55 52 52 56 58 57 52 52 57 59 69 80 88 96 100 100 99 101 92 74 64 59 61 64
23 20 19 18 16 18 21 19 15 21 32 37 40 46 49 48 45 42 42 41 39 42 41 40 35 30 37 40 40 42 45 51 50 54 56 53 51 48 55 64 70 80 92 100 100 99 98 89 72 59 58 60
26 23 21 20 17 18 23 21 15 18 25 32 39 46 52 50 47 45 44 41 39 43 43 44 39 29 35 36 32 35 40 46 45 47 51 54 57 50 46 51 58 64 74 89 100 100 99 98 84 66 58 58
28 28 24 23 22 18 27 27 16 17 21 27 38 45 52 51 49 49 46 42 42 46 44 46 42 31 39 41 34 35 39 44 45 44 44 44 52 56 50 45 50 57 62 67 83 97 99 101 95 77 62 57
29 31 28 27 28 20 29 35 18 16 22 27 35 41 47 49 51 49 45 44 48 50 47 48 42 34 41 44 38 37 40 43 47 46 42 38 39 48 52 50 48 50 54 52 58 76 89 98 101 89 73 62
30 30 29 29 31 24 30 38 22 17 23 28 33 36 41 45 48 47 46 48 53 54 51 50 44 38 42 42 40 40 40 41 47 49 44 40 39 38 42 49 52 49 48 44 44 55 67 82 96 94 83 74
30 29 29 28 30 27 30 34 26 21 22 28 33 34 37 41 44 45 47 50 53 55 53 53 48 45 45 40 41 43 42 41 45 48 45 42 44 43 38 40 49 53 50 41 40 51 58 65 79 86 80 76
31 30 30 29 29 29 30 29 29 28 24 27 34 34 34 37 39 42 45 48 49 52 53 53 48 49 50 42 41 44 43 44 46 46 45 42 44 49 45 38 41 48 50 44 37 45 57 61 66 75 78 74
31 30 30 30 30 29 29 28 29 32 30 30 32 30 29 31 35 37 41 44 44 46 46 43 41 48 55 49 43 45 45 45 47 47 45 40 41 49 52 45 41 42 44 44 40 38 47 58 62 63 72 78
31 30 30 30 30 30 29 29 29 30 33 34 34 30 26 26 28 30 35 38 37 33 29 29 34 44 53 53 49 49 48 45 46 48 45 40 42 49 53 50 47 47 45 44 45 41 39 49 59 56 55 68
31 30 30 30 31 31 29 29 30 30 32 34 38 34 29 27 26 27 30 31 30 25 21 23 28 35 43 50 53 52 52 47 44 46 46 43 43 45 49 49 48 51 51 48 47 44 39 40 50 53 46 49
31 29 29 30 30 31 30 30 30 31 31 33 37 36 32 31 28 27 29 29 31 30 27 27 29 31 35 41 47 51 53 50 46 46 48 45 44 45 46 47 47 50 54 52 50 47 43 38 39 42 38 34
31 29 29 29 29 31 30 30 31 32 32 32 35 36 34 33 31 30 30 32 36 35 32 32 35 35 35 37 40 47 51 52 51 48 48 48 48 49 48 48 48 51 55 54 53 52 48 41 37 35 29 23
31 31 31 30 28 30 31 30 31 32 32 32 34 35 34 33 32 31 32 36 37 37 37 37 38 36 36 38 40 44 46 51 54 52 51 49 50 52 51 49 47 48 53 56 54 53 54 49 44 39 30 23
28 29 31 32 31 30 30 30 31 32 31 32 33 33 33 32 32 32 34 36 35 37 41 41 40 38 38 39 40 41 42 45 49 52 54 52 51 52 52 50 47 46 49 54 54 53 57 58 55 48 37 30
28 32 37 38 38 36 34 31 30 31 31 32 33 32 32 32 32 34 35 33 32 35 40 42 41 41 42 42 40 39 38 38 39 43 48 51 53 52 52 52 50 50 50 52 56 55 56 58 61 59 49 40
40 44 47 46 44 42 39 37 32 30 32 32 33 32 32 33 33 34 34 32 31 33 38 40 38 39 42 43 42 40 37 34 32 33 36 40 47 50 52 54 53 54 54 54 57 58 58 57 60 63 60 52
52 51 51 51 49 47 45 43 40 37 36 36 35 35 35 37 36 36 35 34 33 36 39 38 36 36 38 39 39 39 38 34 31 30 30 30 37 44 46 50 54 55 54 55 57 58 58 57 56 58 60 59
53 49 50 51 50 50 49 49 48 46 43 42 40 39 39 39 38 37 37 37 36 37 38 36 36 35 35 35 35 35 35 35 34 32 30 29 32 37 39 42 49 53 55 54 55 56 56 57 56 54 54 55
49 45 48 48 47 47 47 50 52 50 48 46 44 41 40 40 39 39 39 39 38 37 37 36 36 35 34 34 34 34 34 35 34 32 31 30 31 35 39 41 44 49 54 55 58 60 58 56 55 54 53 51
47 46 48 45 44 45 43 45 48 52 51 48 47 44 42 42 41 41 40 40 40 39 39 38 37 36 35 34 34 35 34 34 32 32 33 32 33 38 41 42 42 45 53 60 61 62 63 61 57 54 51 48
49 48 47 43 43 44 43 44 45 48 49 47 48 46 44 44 43 42 42 41 41 41 40 39 38 38 37 37 37 36 36 35 33 34 37 37 40 44 45 44 44 44 53 61 60 64 72 69 63 58 52 47
47 46 46 43 43 43 44 46 46 45 45 45 46 46 45 44 44 43 42 42 42 41 41 40 40 40 41 42 41 42 45 46 48 52 54 51 51 52 51 49 46 44 49 55 61 73 81 70 66 69 61 52
43 45 45 45 45 45 48 51 49 47 47 47 46 46 46 45 45 44 43 42 41 41 40 40 40 40 41 43 44 47 51 54 58 63 62 60 60 61 61 59 54 49 47 50 57 68 76 75 77 77 65 57
42 45 46 47 47 49 55 55 52 50 49 48 47 47 45 44 44 43 42 42 41 41 41 41 42 42 43 44 46 49 52 54 56 58 60 62 67 68 69 69 65 58 52 52 55 58 65 71 75 73 67 70
43 46 46 46 46 50 58 56 52 51 49 48 48 46 44 43 43 42 43 44 45 46 46 46 46 45 46 45 46 49 53 56 56 58 60 61 65 68 71 77 76 69 60 55 56 58 58 60 63 64 67 75

ECMWFFLT2_925_rhum_042.txt.gz
RH
27 34 33 31 36 47 53 54 59 64 65 66 71 70 63 59 53 55 67 72 77 79 78 83 89 94 96 98 98 92 94 99 98 99 99 96 97 100 99 100 100 99 99 98 96 76 59 58 54 52 51 51
30 30 29 27 25 28 33 37 45 52 56 53 59 69 64 56 47 38 45 53 63 71 70 74 78 88 93 93 97 90 90 95 94 94 92 88 89 97 100 100 100 100 100 98 100 87 68 59 53 55 55 52
30 31 30 30 27 24 22 22 25 32 41 42 46 60 60 52 46 37 33 30 39 53 59 61 64 79 89 88 93 87 83 87 89 86 80 78 79 86 94 98 99 100 100 99 101 96 83 65 55 63 60 54
29 30 29 30 30 27 23 19 17 19 29 38 43 52 54 50 48 44 38 27 24 32 39 42 48 68 81 81 86 84 78 83 86 78 71 70 71 77 83 89 95 98 99 99 100 100 96 74 58 66 66 61
28 28 28 28 28 27 26 21 17 16 21 33 40 46 49 49 50 48 44 34 28 28 29 30 32 47 67 72 75 77 71 75 82 74 67 65 65 69 71 76 86 92 95 97 99 100 100 86 69 66 66 68
28 27 25 24 24 24 23 22 20 15 17 28 36 40 43 46 49 50 46 39 36 37 35 32 26 29 45 53 59 67 60 61 75 71 63 64 63 65 65 67 73 81 87 91 96 99 100 97 91 81 69 67
29 26 25 23 22 22 20 20 20 17 16 23 32 36 37 42 46 47 46 42 43 44 42 39 31 27 30 34 41 50 48 47 62 64 56 58 59 61 64 64 65 67 73 79 85 92 97 99 100 98 83 68
30 28 27 25 24 23 23 21 20 19 17 19 28 33 33 36 41 44 45 44 46 46 46 43 38 31 26 30 37 40 40 41 48 52 49 50 54 57 59 61 64 63 63 66 70 77 88 97 98 100 98 78
30 29 28 27 27 26 26 26 24 22 19 19 24 32 33 31 35 40 43 44 45 47 48 47 43 37 28 30 41 41 41 42 42 44 45 44 47 52 56 56 60 63 63 61 62 65 73 89 96 95 101 90
30 30 30 28 28 28 27 28 28 25 24 22 22 29 32 29 31 34 37 41 43 43 44 45 43 40 34 34 41 45 44 44 43 43 44 43 41 46 55 57 56 58 64 64 62 61 62 73 85 88 94 95
31 31 30 29 29 28 28 28 29 28 27 26 24 27 30 28 27 29 31 34 37 37 36 35 30 30 38 43 45 47 48 46 45 44 44 45 41 40 50 57 58 56 59 64 64 62 60 61 69 76 83 89
33 32 32 30 30 29 28 28 28 29 28 29 28 28 32 30 26 26 27 29 31 31 29 25 20 19 31 46 50 48 49 48 47 46 45 45 43 40 44 50 56 57 55 60 64 64 63 59 59 64 71 78
35 33 33 31 30 29 29 28 28 29 28 29 30 31 34 34 31 28 26 27 28 28 28 25 21 19 23 36 44 46 49 50 49 48 46 46 45 42 43 44 47 52 53 56 61 65 67 65 60 59 62 66
37 35 35 33 32 31 30 29 29 28 28 29 30 32 35 35 35 32 29 29 29 29 30 28 27 27 26 28 36 41 46 49 50 50 49 47 46 45 45 45 45 46 49 53 59 63 68 71 69 64 61 60
34 35 34 32 32 33 33 31 30 29 29 29 29 32 34 36 35 32 32 30 30 32 31 30 33 34 31 30 34 39 41 45 49 51 51 49 48 48 47 47 45 45 47 50 56 62 67 72 73 71 67 62
29 30 29 30 31 33 35 33 31 30 29 29 30 32 33 36 35 33 32 31 32 33 30 31 35 37 34 34 37 39 39 41 44 48 51 50 48 49 49 49 47 46 46 47 51 57 64 70 73 75 73 68
28 29 30 32 32 33 35 37 35 33 32 30 30 32 33 35 34 32 32 32 33 32 30 31 34 36 36 38 39 40 39 39 40 43 46 47 48 48 49 50 49 49 49 47 47 50 56 66 72 76 77 74
32 35 37 36 34 33 34 37 38 37 35 32 31 31 34 35 33 33 33 33 33 31 31 32 35 37 37 37 39 40 41 40 39 38 38 39 41 44 46 48 50 51 52 51 49 48 49 57 67 74 79 78
38 40 42 41 38 36 36 37 39 41 39 37 34 33 34 34 33 34 34 34 34 33 34 35 37 38 37 37 38 39 38 38 38 36 33 32 31 33 37 40 45 48 50 52 52 52 50 51 58 68 75 79
44 44 44 44 44 42 40 39 40 44 45 42 39 37 37 35 35 37 37 37 36 35 38 41 40 39 39 38 36 34 34 34 34 33 32 29 26 27 28 29 35 41 43 45 49 53 54 51 52 59 66 73
47 47 46 46 45 45 45 43 42 46 47 47 45 42 41 40 40 40 39 38 37 35 39 42 39 37 38 36 33 33 32 32 31 31 32 30 27 26 27 26 28 32 35 39 45 51 54 53 52 53 57 63
47 47 47 46 45 45 45 45 44 45 47 48 48 47 45 44 43 42 41 39 38 37 38 38 36 36 36 34 34 34 33 33 32 32 32 32 30 27 29 30 32 34 35 37 40 45 50 51 52 52 53 56
49 48 47 46 45 44 44 44 43 44 44 44 45 47 48 47 45 43 43 42 41 40 39 39 38 38 38 37 36 35 34 34 33 33 33 33 31 29 32 34 38 42 40 40 41 44 47 49 50 51 52 53
51 49 49 47 46 45 45 44 44 44 43 41 39 42 48 48 47 45 44 43 42 42 41 41 41 40 40 39 39 38 38 37 36 37 37 35 33 34 41 43 43 47 47 45 43 45 48 49 49 48 48 50
51 48 50 48 47 46 45 45 44 43 41 40 40 44 50 49 46 45 44 44 43 42 42 41 41 40 40 40 40 41 41 41 41 43 44 44 42 45 56 58 53 52 50 50 52 52 51 49 46 43 41 43
49 46 48 47 46 46 46 44 43 44 42 44 47 49 50 47 45 45 44 44 43 42 42 41 41 41 41 40 40 41 41 42 45 45 47 51 53 57 65 68 63 57 54 58 59 57 62 60 48 41 40 43
45 42 46 47 45 45 46 44 45 49 50 50 50 48 47 46 44 44 44 44 43 43 43 42 42 42 42 42 42 42 42 44 46 47 47 49 53 61 69 70 67 64 63 63 60 64 78 78 63 58 56 51
41 41 46 47 45 45 45 45 51 56 55 52 50 48 47 46 45 44 44 43 43 45 45 45 45 44 45 44 44 44 44 45 46 50 52 49 50 60 72 74 69 67 67 66 66 74 84 80 77 82 75 63
42 46 48 46 45 46 45 48 56 58 55 53 51 50 49 47 46 45 44 44 46 49 50 50 49 48 48 48 48 47 46 47 47 52 52 48 51 59 68 72 71 70 65 62 65 72 78 81 91 90 76 72
46 51 48 47 47 47 47 51 57 57 55 54 51 51 51 50 49 48 49 51 53 54 53 52 51 52 52 52 53 52 52 53 51 50 48 51 59 62 62 66 74 74 64 61 63 68 73 75 80 77 71 79
49 51 47 48 48 47 50 53 56 56 55 54 53 54 53 52 53 54 56 57 58 57 54 54 55 54 52 51 52 53 55 57 56 57 60 66 71 70 65 62 67 69 66 68 68 67 73 72 69 70 72 79

ECMWFFLT2_925_rhum_045.txt.gz
RH
17 22 43 39 33 48 56 62 63 60 55 45 52 68 77 70 56 61 74 75 76 80 82 84 84 86 89 87 90 96 96 95 96 98 100 100 96 95 96 94 97 100 99 100 100 99 100 95 77 69 69 63
18 20 38 37 27 36 42 53 56 53 51 33 29 44 61 71 56 46 62 73 72 75 76 78 81 82 86 87 87 91 92 92 95 96 99 100 92 84 86 86 88 94 97 98 101 100 98 102 89 73 75 75
21 22 31 29 25 32 31 41 46 39 38 28 21 27 38 53 52 42 50 63 64 68 66 63 72 77 80 83 85 87 86 88 93 95 97 98 91 79 77 79 81 83 89 94 99 101 99 101 91 76 77 78
25 26 29 27 24 29 27 31 36 28 24 22 20 23 29 34 39 40 45 51 52 56 55 51 59 69 77 80 81 82 80 82 88 93 93 91 86 76 72 73 76 79 81 87 95 99 100 99 91 84 85 80
28 28 28 29 26 27 26 24 25 23 21 23 22 22 27 29 31 36 40 43 45 46 46 49 51 55 67 74 78 79 74 74 81 87 87 86 79 69 68 68 70 75 76 80 86 94 99 100 96 90 85 82
32 31 30 29 29 28 27 25 22 22 23 24 25 25 26 29 29 30 34 37 40 41 39 43 43 42 50 56 64 68 62 62 71 78 78 79 73 63 65 66 66 69 71 75 77 85 95 100 99 91 87 90
35 35 33 30 30 30 28 27 25 24 24 24 25 27 28 31 30 28 29 31 33 36 35 34 34 32 34 39 47 50 48 48 55 62 64 68 66 61 63 64 65 66 68 72 73 76 84 91 96 94 95 97
37 37 37 33 31 31 30 29 28 27 26 25 25 26 28 32 33 30 28 27 28 29 31 30 29 26 23 32 41 43 42 42 45 48 50 56 61 62 62 62 63 65 66 69 72 73 74 78 85 91 96 96
38 38 39 37 33 33 32 30 30 29 28 27 26 26 27 31 34 35 31 28 27 26 27 27 26 25 20 24 35 41 43 43 44 45 46 47 53 58 61 62 61 61 63 66 70 73 73 74 74 80 89 93
39 38 40 40 36 35 34 32 31 30 30 29 27 27 27 30 33 35 34 31 30 28 27 26 25 25 22 21 26 35 41 43 45 46 47 46 47 51 56 60 61 60 59 62 68 71 73 74 74 73 76 85
38 37 40 40 37 37 36 33 32 31 31 30 29 28 27 29 33 35 35 32 31 31 30 28 26 24 25 25 24 28 34 39 43 45 47 47 46 46 48 53 58 61 60 61 66 70 72 73 77 76 71 73
35 36 37 36 36 35 34 32 31 31 32 32 30 30 28 29 32 34 35 33 31 32 31 30 28 27 28 29 29 29 30 33 38 42 44 45 45 44 45 47 50 56 59 62 66 69 71 72 75 78 75 70
31 32 32 32 33 31 31 31 30 31 33 33 31 31 30 29 31 34 36 34 32 32 32 31 30 31 32 32 33 32 32 33 35 38 40 42 43 43 43 44 45 50 53 58 64 67 68 70 72 76 78 74
28 28 28 28 29 29 29 31 32 34 35 35 33 32 31 30 31 34 36 34 32 32 32 31 31 34 36 35 36 35 35 35 35 35 37 38 37 38 39 40 42 44 47 51 58 64 65 66 68 71 76 77
27 27 27 28 28 28 29 31 34 36 37 36 34 33 32 32 32 33 36 35 33 33 32 31 33 36 38 38 37 36 34 34 34 33 33 34 33 33 34 34 36 38 41 45 50 54 59 62 63 65 72 75
29 29 29 30 30 31 31 31 34 37 39 38 37 36 34 34 35 35 36 35 34 35 34 33 36 39 38 39 37 34 33 31 31 30 30 30 29 29 29 29 31 31 33 39 43 45 49 55 58 59 65 71
31 32 33 34 34 35 34 34 34 37 40 41 40 39 38 37 36 37 40 39 38 37 35 37 41 40 38 38 35 32 32 30 30 30 29 28 27 26 26 26 26 25 27 31 36 40 42 46 51 55 58 64
34 36 37 36 36 37 37 37 37 39 41 43 44 42 41 41 39 44 48 45 40 39 39 43 43 40 38 37 34 32 31 31 31 31 30 30 29 27 26 26 24 23 24 25 28 35 38 40 43 49 53 56
36 37 37 36 37 36 37 38 40 42 42 44 46 45 44 44 43 46 48 44 39 40 42 43 41 38 37 36 34 33 32 33 33 33 33 32 31 30 29 28 25 24 26 25 26 29 34 37 39 42 47 51
36 37 37 37 37 38 38 38 40 42 43 43 44 45 46 46 47 45 43 42 40 40 41 40 39 38 37 36 36 35 35 35 35 35 35 34 34 34 33 32 30 29 29 29 29 30 31 34 37 40 42 45
38 39 40 40 40 41 41 40 41 41 41 41 41 41 42 45 49 48 44 43 42 41 41 41 41 40 40 39 39 38 37 37 36 37 37 37 38 38 38 37 35 33 35 38 36 32 30 31 35 38 41 43
38 40 42 42 43 42 42 43 42 42 42 42 42 40 41 49 53 49 46 45 44 43 42 42 42 41 41 40 40 39 38 38 37 37 39 39 40 42 42 41 40 39 43 47 44 36 29 30 33 36 38 39
38 41 43 43 43 43 43 43 41 42 42 41 41 43 50 57 53 48 47 45 44 44 43 43 42 42 41 41 41 40 40 39 38 39 39 41 42 42 44 44 43 43 47 51 49 41 31 27 30 30 32 36
42 44 43 42 43 45 45 43 44 44 40 41 46 50 56 57 50 47 47 45 45 44 43 43 43 43 42 42 42 41 41 41 40 41 40 41 43 43 44 44 44 45 49 52 50 44 35 27 24 24 27 31
47 47 42 42 46 48 46 45 47 43 42 50 57 55 53 51 48 47 45 44 44 43 44 44 44 44 43 43 42 42 43 42 42 42 40 40 43 44 46 49 50 49 51 57 59 55 45 30 21 26 34 38
47 44 40 45 51 49 45 45 45 44 50 60 60 54 51 50 48 46 45 44 44 44 46 46 46 46 45 44 44 44 43 43 43 42 41 44 46 44 48 54 54 50 56 69 69 63 63 50 34 36 45 52
43 38 43 52 52 47 46 46 45 48 57 60 57 54 52 49 48 47 46 45 45 49 51 51 49 47 47 47 47 48 47 46 46 46 46 49 47 45 49 55 55 54 62 72 69 69 79 74 60 57 57 56
38 38 47 52 48 46 47 47 47 50 56 58 57 55 51 49 51 49 47 47 51 55 55 53 50 50 52 51 51 51 51 51 53 54 55 56 52 50 56 63 63 62 63 65 69 80 86 80 81 83 71 62
37 40 45 46 44 46 46 46 48 51 56 57 56 56 53 53 54 51 50 54 57 59 58 54 53 56 56 53 51 50 51 53 54 56 61 69 74 71 74 79 77 72 68 61 59 74 85 87 96 91 73 72
39 42 44 44 45 46 46 48 50 52 55 55 55 56 55 55 55 53 55 59 61 61 59 56 57 60 56 51 50 49 51 51 50 54 59 67 76 75 75 81 84 79 70 60 56 66 74 77 84 84 78 85
40 43 42 43 45 46 47 50 51 51 53 55 57 57 56 56 55 55 60 62 62 61 59 58 58 57 52 49 50 51 54 53 52 56 55 55 58 59 59 65 78 84 77 76 76 71 68 66 70 78 82 88

ECMWFFLT2_925_rhum_051.txt.gz
RH
18 23 41 59 57 57 60 60 64 64 63 61 59 60 62 57 50 43 48 56 52 60 69 65 66 71 81 90 94 99 99 99 99 98 99 99 98 98 98 97 99 100 98 99 100 100 100 92 92 100 100 98
18 17 30 50 48 48 55 55 58 60 58 55 51 52 53 48 39 31 38 47 44 52 56 48 55 64 73 84 89 94 98 99 99 98 99 99 99 100 100 100 98 94 96 99 100 100 98 88 87 96 99 99
19 19 26 36 34 37 44 46 52 52 47 41 36 37 38 33 29 24 29 35 35 42 40 28 42 61 67 75 83 90 95 98 98 98 100 100 99 100 100 97 91 86 91 97 98 100 94 83 82 89 94 97
19 21 24 27 28 31 34 35 39 36 30 27 27 28 28 26 25 26 26 29 30 33 30 20 31 54 65 68 73 86 90 87 92 98 99 100 100 100 98 92 87 86 88 91 93 95 90 80 78 81 86 92
20 20 21 22 25 30 31 32 32 29 25 24 26 27 27 26 25 26 27 28 30 30 29 25 25 38 59 64 60 78 81 65 76 94 95 95 99 96 93 91 88 88 88 88 89 88 85 79 77 78 80 85
20 20 19 20 25 30 30 31 31 28 26 25 26 26 25 26 26 26 27 29 30 32 31 31 27 26 46 58 48 57 57 40 53 76 78 79 89 88 87 90 88 88 88 88 88 87 85 81 80 79 78 79
21 21 21 23 27 30 29 28 29 26 25 26 25 25 25 25 27 27 27 29 31 33 34 33 32 26 30 41 37 34 32 27 36 49 53 58 70 76 79 85 86 87 88 88 88 87 86 84 83 82 80 78
22 23 24 28 29 28 28 26 26 26 25 26 25 24 24 25 26 28 29 30 31 33 36 34 34 31 25 28 31 29 26 26 29 33 38 45 53 62 70 78 82 85 87 87 87 87 87 86 85 84 83 80
23 24 26 28 28 27 26 26 26 26 26 25 24 25 25 26 26 28 29 29 32 34 37 36 34 34 29 27 30 32 30 27 28 29 33 37 43 50 59 68 75 81 84 86 86 86 87 86 85 85 85 84
23 25 26 27 27 27 26 26 26 25 26 25 25 27 27 29 29 29 29 29 32 35 37 38 35 34 32 30 30 32 32 30 29 29 31 34 37 42 48 57 65 73 79 83 85 85 85 85 84 84 85 85
23 25 25 26 26 27 27 26 26 26 26 27 28 29 30 31 32 31 30 29 31 35 39 38 36 35 34 32 30 32 33 32 31 30 31 34 36 37 40 45 52 60 69 75 80 83 84 83 83 82 82 83
22 24 24 26 27 26 27 26 26 27 27 28 29 30 32 33 35 36 34 32 33 37 41 39 37 38 36 35 32 32 33 33 32 32 32 33 36 37 37 39 42 48 54 63 72 77 82 82 81 80 80 80
21 24 25 25 27 26 27 27 27 28 29 30 31 31 32 35 38 40 40 38 38 41 43 41 40 41 39 37 35 33 33 34 34 34 33 33 35 36 38 39 39 41 44 50 58 67 75 79 80 79 78 77
22 23 25 25 26 26 26 27 29 30 31 31 31 32 33 36 41 44 44 44 45 46 46 43 43 44 42 39 37 35 34 35 35 36 35 35 35 36 38 40 40 41 41 42 46 54 65 73 77 78 77 76
23 24 25 26 26 27 28 29 31 31 31 31 31 33 34 38 43 45 46 46 48 49 47 47 47 46 42 40 38 36 36 35 36 38 37 37 36 37 38 40 40 40 41 41 41 43 51 61 70 75 75 75
23 25 26 26 26 28 30 31 32 31 31 32 32 34 36 39 42 44 44 45 46 47 47 47 47 45 42 40 39 38 38 36 37 39 38 39 37 37 39 39 40 40 41 41 42 41 42 47 57 67 72 73
24 26 26 26 27 29 31 32 32 32 32 34 34 36 38 41 42 43 43 44 45 45 45 44 44 43 41 41 40 40 39 38 38 39 40 41 40 40 41 40 40 42 41 41 43 41 39 39 44 53 62 68
25 26 27 27 29 31 32 32 33 34 34 35 37 38 40 42 42 42 44 45 45 46 45 44 43 42 42 41 41 41 41 40 39 39 41 42 43 43 42 41 43 44 42 42 41 40 40 37 37 40 47 57
25 27 27 28 30 31 32 32 33 35 35 36 38 39 40 41 41 41 46 50 47 46 46 46 45 44 43 42 42 42 42 42 41 41 41 42 44 45 45 47 46 45 45 44 40 38 39 35 32 33 36 41
26 27 28 29 31 31 31 31 33 35 35 36 38 39 40 39 39 43 51 54 50 48 47 46 47 46 45 45 44 44 43 43 43 43 42 43 44 44 49 53 50 51 51 49 45 39 35 33 30 29 30 30
25 26 28 30 31 30 30 30 32 34 34 35 37 39 39 39 42 50 55 54 51 49 47 46 46 46 46 46 46 45 45 45 44 44 44 44 44 43 49 55 54 56 56 56 56 49 38 33 29 27 26 24
25 27 29 30 30 30 29 30 31 33 33 33 36 37 38 43 50 55 56 54 52 49 48 47 46 46 47 46 46 46 45 45 44 44 44 43 42 41 47 57 58 56 58 60 65 61 48 39 34 28 23 21
26 28 29 29 29 30 30 30 30 32 33 33 36 37 40 49 57 57 55 54 52 50 49 47 46 47 46 47 47 45 45 45 44 44 43 42 42 40 43 55 59 57 61 67 71 67 57 49 38 25 20 20
27 29 30 29 30 30 29 30 31 32 33 34 37 39 45 55 60 58 56 55 53 51 50 47 48 47 47 48 46 48 52 50 45 46 46 45 45 46 49 57 61 64 72 76 72 66 61 51 35 28 26 26
26 29 30 29 30 30 30 30 33 34 34 36 37 40 49 59 62 60 58 56 54 52 50 49 49 49 49 48 48 57 62 54 50 50 48 47 50 57 65 68 69 77 82 77 67 61 57 46 38 45 44 49
26 28 28 29 29 29 31 31 33 35 35 36 37 39 48 58 61 60 58 55 52 51 50 50 52 52 52 51 55 64 61 52 52 51 46 50 60 67 72 75 79 83 81 73 64 58 54 46 46 50 46 58
25 27 28 28 29 30 31 32 33 35 35 37 38 38 44 54 60 58 55 51 49 50 48 51 57 57 56 57 60 62 57 53 55 53 49 55 67 69 66 70 78 77 72 71 68 65 60 51 46 39 38 52
25 28 29 30 30 31 32 33 35 36 36 37 39 40 42 50 58 56 53 50 49 49 48 54 60 60 62 64 62 59 58 56 57 58 57 62 68 64 58 61 67 65 65 75 80 75 65 55 52 44 47 58
26 29 30 31 32 33 36 37 39 40 39 38 40 45 47 50 55 53 52 52 50 48 52 59 61 62 66 67 62 58 57 57 59 61 62 67 66 60 59 57 58 58 63 78 84 78 72 73 75 65 61 63
27 30 30 31 33 35 38 41 42 40 39 39 41 47 49 49 49 50 54 55 50 48 57 64 63 64 66 65 60 57 58 60 62 62 65 70 63 59 63 58 54 53 58 71 73 72 80 84 81 74 73 73
27 30 29 30 31 32 36 39 40 37 38 40 41 44 46 46 48 53 58 54 48 49 59 66 65 64 65 62 57 56 62 64 62 64 68 70 62 59 61 57 53 50 54 60 57 65 80 75 70 74 81 83

ECMWFFLT2_925_rhum_054.txt.gz
RH
14 17 32 54 59 56 61 63 64 68 67 63 60 58 58 60 57 50 50 55 58 62 63 57 57 61 66 73 78 84 86 87 86 84 85 91 93 93 98 100 100 96 86 84 83 81 80 76 73 74 71 68
17 13 19 36 38 41 54 59 62 64 62 59 54 51 53 55 49 43 44 46 51 58 60 55 53 57 64 70 73 80 86 83 83 85 85 89 94 96 99 100 98 88 79 80 84 81 81 79 73 74 75 71
19 15 14 17 17 22 35 43 51 52 49 46 38 35 39 39 38 43 47 45 46 53 57 52 51 55 60 68 70 75 84 79 77 85 88 87 89 97 101 99 90 77 74 79 82 82 80 77 75 73 74 74
20 15 12 13 14 17 20 26 31 31 30 29 27 25 26 28 37 47 48 47 44 50 55 50 50 54 55 64 67 69 78 73 69 81 88 85 87 97 93 81 75 70 73 77 79 81 79 76 77 75 73 75
18 12 12 15 17 18 19 22 22 26 27 27 32 28 27 33 41 42 42 45 45 48 52 49 48 50 53 60 60 62 69 61 61 76 79 81 88 83 64 54 60 68 73 76 79 80 80 79 77 77 75 75
19 15 19 22 23 24 25 25 23 30 31 32 37 33 34 37 37 39 41 43 45 44 44 46 44 42 48 54 52 50 53 46 48 62 61 64 67 52 40 44 53 64 71 74 79 82 82 82 80 79 79 76
24 23 26 27 31 33 34 35 31 34 35 35 36 32 36 36 36 43 43 42 46 44 42 47 45 43 46 48 47 37 35 39 39 42 38 37 37 29 30 37 44 55 67 72 76 81 83 84 84 82 82 80
29 27 26 29 34 36 38 41 38 38 39 40 39 34 37 39 43 49 44 42 46 44 43 45 44 47 46 46 47 38 37 42 42 41 37 33 32 33 32 31 38 46 56 66 71 76 82 84 87 86 86 84
28 22 24 29 34 37 37 42 40 37 39 42 44 40 42 46 49 50 45 44 45 43 43 43 43 44 43 43 45 44 42 41 41 44 45 43 43 45 42 33 34 39 46 56 64 69 76 81 85 88 89 90
25 19 25 30 33 35 36 44 42 37 38 40 43 44 46 49 49 49 47 48 49 46 44 44 44 42 43 43 42 42 40 39 40 40 42 44 45 47 46 41 35 35 41 46 54 61 66 73 79 85 89 92
25 20 24 27 32 33 32 43 42 37 39 39 43 47 48 47 46 48 49 51 52 51 49 45 44 44 44 44 42 40 38 40 41 37 38 41 43 44 46 48 43 38 39 40 47 52 56 62 67 76 84 89
26 21 21 23 31 34 34 42 40 37 39 40 43 45 48 48 45 46 50 51 51 52 51 48 48 48 47 45 42 41 39 40 40 38 38 39 42 43 43 48 48 48 45 40 43 48 50 54 57 63 73 83
26 21 20 22 30 34 35 41 40 37 39 40 42 42 48 51 46 46 51 51 49 51 53 53 53 51 49 47 43 41 40 40 40 39 38 39 41 41 43 44 46 51 50 44 45 48 48 49 51 53 59 70
26 22 21 25 30 31 34 39 38 38 39 39 40 41 47 51 49 47 51 54 50 50 55 55 55 53 51 49 45 43 42 42 42 41 40 41 41 41 42 42 44 47 49 50 49 49 50 48 47 48 50 57
26 21 21 24 27 30 33 35 37 40 40 39 40 42 47 51 50 48 52 58 53 50 53 53 53 53 50 48 47 45 44 44 45 44 43 44 45 44 43 42 45 45 47 51 51 51 52 48 45 44 44 47
23 20 19 20 24 31 33 33 38 41 39 39 41 43 50 53 52 49 51 60 59 53 53 52 51 52 50 49 47 46 48 49 48 46 46 48 49 49 47 45 45 45 46 49 50 53 51 45 43 42 40 40
22 19 18 19 24 31 33 35 39 41 40 41 41 43 49 53 54 51 49 57 62 56 52 52 52 51 49 49 48 48 51 52 48 45 45 48 49 49 48 46 46 46 47 47 47 50 48 42 43 43 40 36
22 19 19 21 27 31 33 36 40 40 40 41 41 41 45 50 55 53 48 56 63 57 51 51 52 51 49 48 50 50 49 49 46 43 45 47 47 48 48 46 47 48 48 47 47 48 46 45 47 47 41 34
21 19 20 22 26 29 31 35 38 40 40 40 39 40 41 46 52 52 50 58 64 60 52 50 51 50 48 50 53 51 48 50 48 45 46 47 46 49 49 47 48 50 49 47 47 48 48 49 50 50 44 34
21 19 21 22 22 24 29 33 36 39 39 38 37 38 40 43 47 49 56 66 66 61 55 50 50 49 49 54 55 52 50 52 50 47 49 49 48 50 51 49 49 51 50 48 46 46 50 51 50 52 49 38
21 19 20 21 21 23 27 31 35 39 39 37 38 39 41 43 45 50 63 69 63 58 57 52 51 53 54 56 56 52 52 51 49 49 51 50 49 50 51 50 49 50 48 47 46 47 53 55 53 57 54 45
22 20 20 22 23 24 27 31 34 36 36 36 38 40 43 44 45 52 64 67 60 56 57 54 54 57 58 58 56 53 52 50 49 51 51 51 51 51 52 50 51 50 47 49 52 55 60 60 58 60 56 51
22 21 22 24 25 26 28 32 33 34 35 36 37 40 44 44 45 54 62 64 61 58 56 55 53 56 60 60 55 53 52 50 50 51 53 55 54 53 52 51 53 53 51 55 61 63 64 61 59 58 56 55
24 26 28 29 31 31 32 34 35 36 38 38 38 41 44 44 47 54 60 62 61 60 58 55 53 56 61 60 56 53 53 53 51 53 55 56 56 54 53 51 51 56 60 61 61 60 58 57 54 50 52 54
25 28 32 34 34 33 31 32 35 37 38 41 41 41 42 45 49 55 61 63 61 61 60 58 54 56 60 58 56 53 53 57 58 58 58 56 53 53 55 52 50 60 65 56 50 49 48 49 47 46 55 61
26 26 28 30 31 29 28 29 33 34 36 41 41 38 41 46 51 57 63 64 62 61 61 59 55 55 59 58 56 55 57 61 60 58 58 55 50 48 53 52 53 64 62 47 45 49 47 44 41 44 58 66
26 25 23 24 26 28 28 28 31 33 34 38 38 37 43 48 51 57 62 63 63 63 61 58 56 55 57 58 59 58 56 56 54 53 53 54 51 49 50 48 52 63 58 49 51 52 47 41 36 37 47 55
25 25 24 24 23 26 29 29 32 36 37 38 38 38 42 46 50 54 58 61 62 62 60 59 58 57 57 58 61 58 53 50 48 49 50 52 54 53 48 41 45 55 56 55 58 51 40 41 43 40 44 50
26 25 26 28 30 32 34 35 37 39 39 39 39 41 42 44 48 52 56 60 61 60 59 59 59 61 60 59 62 58 52 48 46 48 51 52 55 53 46 42 43 46 49 57 64 56 42 49 58 52 51 48
27 26 27 31 35 36 36 36 35 35 34 33 34 37 38 40 45 50 54 57 58 59 59 58 60 65 65 63 63 58 52 49 47 49 52 54 56 53 49 50 47 41 41 50 60 58 52 61 64 56 54 47
29 28 28 31 33 32 31 29 27 27 28 29 30 32 34 37 42 46 49 49 53 58 59 58 60 66 69 67 63 58 53 50 48 50 53 57 59 54 51 53 49 40 37 41 46 51 57 63 60 57 61 58

ECMWFFLT2_925_rhum_057.txt.gz
RH
26 17 9 9 15 19 30 45 57 64 66 66 64 61 57 54 52 50 56 65 67 66 67 70 69 67 70 75 78 78 78 82 83 82 85 87 88 88 89 90 96 94 82 84 91 98 100 98 96 82 69 66
36 27 13 9 9 9 15 25 39 50 54 55 53 51 49 42 39 46 58 61 63 64 63 67 67 63 68 73 77 78 77 81 77 76 83 87 88 89 88 82 77 62 44 52 70 90 100 97 91 76 67 69
38 33 17 15 16 13 14 16 23 29 36 44 45 48 50 42 38 47 54 52 54 57 58 61 61 60 65 68 73 75 73 76 71 70 79 82 83 84 77 56 38 27 24 33 44 69 93 91 82 73 68 69
35 32 22 25 27 22 23 25 26 26 36 46 46 49 52 47 43 43 43 44 45 49 54 52 52 58 61 63 69 70 67 68 65 65 72 74 75 74 59 32 19 17 19 24 28 44 67 74 72 74 74 71
35 32 29 35 36 32 31 34 37 38 45 49 46 48 49 44 40 37 38 41 41 45 49 47 52 58 58 61 66 67 63 61 61 62 64 65 67 63 43 20 17 20 17 19 24 31 45 59 66 74 79 77
37 37 36 35 35 37 36 39 44 45 45 45 45 47 47 42 36 35 40 43 43 46 48 50 57 58 58 62 64 66 62 57 60 63 62 62 64 60 46 33 33 32 22 17 18 23 32 46 60 69 77 82
37 36 33 30 31 34 35 37 41 43 41 41 44 48 48 41 37 42 45 46 46 48 49 49 50 52 54 58 59 59 58 54 55 58 58 59 60 59 55 52 51 46 39 31 21 19 23 31 48 60 69 79
36 34 31 29 29 32 33 33 37 40 37 39 42 46 47 42 44 49 48 46 47 48 46 43 43 47 48 48 49 50 50 49 46 47 47 50 51 49 48 51 53 50 51 51 33 21 24 26 35 48 59 69
34 32 31 29 28 30 32 30 34 39 35 36 40 42 45 45 48 48 44 44 47 49 47 45 44 44 44 42 44 45 45 42 41 43 40 40 44 42 41 45 51 52 52 57 44 26 25 26 28 36 47 57
33 33 31 30 29 28 30 29 32 36 34 33 36 40 44 46 46 42 41 42 46 50 49 47 45 43 42 41 42 43 41 39 39 41 39 37 38 40 42 42 47 53 54 58 55 39 26 24 26 29 35 45
33 34 32 30 29 28 31 31 31 35 34 32 34 39 42 43 44 43 40 40 45 49 47 46 46 45 44 43 43 41 39 39 39 39 39 37 38 39 40 42 43 47 50 54 58 54 42 28 23 26 29 35
34 33 32 32 31 30 33 33 32 34 34 34 35 37 39 42 45 45 41 40 45 47 44 46 49 49 47 46 44 42 40 39 39 39 38 38 38 38 38 40 41 41 44 47 50 55 56 43 29 25 25 27
35 33 32 33 33 32 33 33 33 35 35 35 34 34 37 41 45 45 42 42 45 47 46 46 51 51 49 48 46 43 41 39 39 39 39 39 38 39 39 38 39 40 41 43 44 49 57 56 45 35 28 23
34 33 33 34 35 35 35 34 34 35 34 35 33 33 35 40 45 46 45 43 45 49 49 46 49 50 48 49 46 44 43 41 40 40 40 40 40 40 40 40 39 41 41 41 43 45 51 56 55 50 38 25
33 32 32 33 34 35 35 34 35 35 34 34 34 34 36 41 45 47 46 45 45 51 53 48 46 47 47 46 45 44 44 43 43 44 42 41 43 44 44 44 42 42 42 42 42 43 46 50 53 54 46 32
34 32 31 31 32 33 34 35 35 34 33 33 34 35 38 41 45 48 48 46 46 52 56 51 47 47 48 46 45 44 43 46 48 48 46 43 44 45 46 45 43 43 43 43 43 42 43 45 48 50 48 43
33 34 33 33 33 33 34 36 36 34 33 33 33 36 38 40 43 46 48 46 45 50 55 53 48 48 49 48 46 45 46 48 49 48 45 43 42 43 44 43 43 44 43 43 44 44 43 42 45 46 47 48
31 32 34 35 34 33 34 36 35 33 33 33 33 35 37 39 42 46 49 48 45 48 53 53 49 46 48 48 46 47 48 48 46 44 44 42 42 42 43 43 42 43 44 43 44 45 44 43 43 44 45 46
29 29 30 33 33 32 34 35 35 33 32 33 34 33 34 38 41 45 49 50 48 49 53 54 49 45 45 47 47 48 48 49 46 44 46 44 43 44 44 43 43 45 45 44 44 44 45 44 40 40 44 45
29 28 27 30 33 33 34 35 34 33 32 32 34 34 34 36 41 46 48 49 51 54 55 53 49 45 44 46 49 50 50 49 47 46 47 46 45 47 46 44 44 46 46 44 44 44 44 44 41 40 44 46
30 30 28 28 31 33 34 36 35 34 34 32 33 34 34 36 40 46 48 49 56 60 55 51 49 47 45 49 51 52 52 49 47 46 45 46 46 47 46 45 45 44 44 44 45 45 45 45 45 44 46 48
32 32 31 29 29 32 33 35 35 35 34 34 35 33 33 36 40 45 47 50 59 60 53 50 51 50 48 52 54 53 52 50 48 47 46 46 47 48 48 47 46 44 44 45 47 49 49 50 50 48 49 50
32 33 33 31 29 30 32 33 35 35 34 34 34 33 34 37 40 44 46 50 59 59 53 50 50 50 50 53 55 54 52 50 49 49 48 49 50 52 52 51 49 47 45 46 50 52 51 50 49 48 48 48
33 35 35 33 30 29 31 33 34 36 35 34 33 34 35 38 40 42 44 50 58 58 54 51 50 50 50 52 55 56 53 50 48 48 49 51 52 53 52 51 49 47 46 49 52 50 46 45 44 44 45 44
33 35 36 35 33 30 29 30 32 33 34 35 35 35 37 41 41 41 43 50 56 56 54 53 52 51 50 51 55 55 53 51 50 51 54 55 53 53 51 49 47 47 50 52 49 42 40 41 40 41 42 45
32 33 35 35 33 31 29 29 30 31 31 33 36 36 38 42 41 41 44 49 55 56 55 54 53 52 51 50 52 53 52 51 52 55 58 57 53 50 47 45 45 48 52 51 44 40 41 40 35 35 41 49
31 30 32 33 33 31 28 27 26 27 28 30 34 37 39 41 38 40 45 49 55 58 57 55 54 52 50 49 51 53 52 51 52 55 55 53 51 48 45 44 44 46 52 53 45 42 44 38 32 32 38 45
32 31 31 32 33 32 28 26 24 24 26 29 33 36 39 39 37 38 44 49 55 59 59 57 55 52 49 48 50 53 52 50 49 50 49 48 49 48 46 44 41 42 50 53 48 45 43 38 36 37 37 38
32 34 34 33 34 35 32 30 28 26 26 27 30 34 35 37 39 40 43 48 54 58 59 59 58 54 50 49 50 51 52 50 45 44 44 45 47 47 46 43 40 40 44 48 50 51 48 42 43 44 41 38
33 35 35 33 33 35 34 32 30 28 27 26 28 31 32 33 37 41 44 47 51 55 57 58 58 56 54 52 52 52 52 50 45 42 42 44 46 47 47 46 44 42 41 42 45 52 54 49 48 50 46 40
35 35 35 34 33 32 32 30 29 27 26 26 27 28 30 32 34 39 42 44 49 54 56 57 57 57 56 55 54 54 54 52 46 43 43 46 48 47 49 49 47 44 41 37 37 45 52 51 52 54 51 45

ECMWFFLT2_925_rhum_063.txt.gz
RH
23 24 24 23 23 22 21 21 21 20 21 20 19 19 18 13 10 16 32 56 65 65 65 66 71 64 63 77 86 85 86 90 88 86 84 86 88 86 80 75 72 58 47 51 62 65 63 59 32 16 17 11
25 24 24 24 23 23 22 21 21 20 21 20 20 20 19 15 12 12 21 43 52 50 57 64 55 42 57 79 84 83 85 90 88 82 82 86 85 84 82 79 73 51 36 41 43 50 56 51 29 13 14 12
26 26 24 23 23 23 22 21 22 21 21 21 21 20 19 17 15 12 11 21 25 26 44 50 30 30 63 82 82 82 84 88 83 77 83 86 82 85 85 81 77 54 37 43 37 36 42 38 26 16 16 14
26 27 26 25 24 23 22 21 22 22 22 22 22 21 20 19 16 15 10 10 10 12 26 28 21 39 68 77 77 80 82 84 79 76 82 82 80 84 81 77 77 58 40 43 40 38 37 27 20 19 20 17
26 27 26 26 26 25 23 23 23 23 23 22 22 21 21 20 18 17 14 10 9 10 15 18 26 43 60 69 71 75 76 76 75 72 75 77 76 74 72 71 64 48 38 38 35 39 42 28 19 20 21 21
27 28 26 26 27 26 24 24 24 23 23 22 22 22 22 21 19 19 17 14 11 11 14 17 26 32 45 64 68 67 68 69 67 63 66 71 70 63 63 64 48 36 36 35 32 34 37 33 28 25 21 23
26 27 26 27 27 27 26 25 24 23 23 22 22 22 22 22 20 20 19 16 14 13 14 15 20 23 32 48 56 57 58 58 54 53 60 63 59 55 52 49 39 37 37 35 35 33 32 35 37 35 29 26
25 26 26 28 28 28 27 26 25 24 24 23 23 23 22 22 21 21 21 18 16 14 14 15 17 21 24 30 38 46 50 47 43 46 51 48 45 44 41 38 37 38 38 37 38 35 35 38 39 40 38 34
24 25 27 29 30 29 29 27 26 25 25 24 24 24 23 23 22 22 22 20 18 15 14 16 17 19 22 25 32 39 43 41 39 42 43 40 38 38 38 39 39 38 38 39 39 37 38 40 40 41 41 41
24 25 27 29 30 30 29 28 27 26 25 25 25 25 25 24 24 23 22 22 20 16 14 16 17 18 21 24 28 31 39 43 43 43 42 40 38 39 40 39 39 39 39 39 39 39 39 40 41 41 42 42
25 26 28 29 30 30 29 28 27 27 26 26 26 26 26 26 25 24 24 23 22 18 15 16 17 18 20 23 25 27 37 44 45 45 43 41 39 40 41 40 40 39 39 40 40 39 39 40 41 41 42 43
25 26 28 29 31 30 30 29 27 27 27 27 28 27 27 27 26 25 25 24 23 20 17 17 18 19 19 21 23 26 34 43 46 46 45 42 41 40 40 40 40 40 40 41 41 39 40 41 42 42 42 43
25 26 28 30 31 31 30 30 28 27 28 28 28 28 28 28 27 26 26 25 25 22 19 18 18 19 18 19 21 25 32 43 48 47 45 43 42 41 40 41 40 39 39 40 42 42 42 43 43 43 43 44
25 26 28 30 30 31 31 30 29 29 29 29 29 29 28 29 28 27 27 27 26 24 22 19 17 18 19 20 21 25 30 38 44 43 43 44 44 43 41 41 39 39 41 43 44 44 44 44 44 43 44 44
25 26 28 29 30 31 31 30 30 30 30 30 30 30 30 30 29 28 28 27 27 26 24 21 18 18 20 22 23 28 30 32 36 38 41 42 43 44 43 41 40 42 45 44 43 43 44 44 44 44 44 44
25 27 27 29 30 30 31 31 31 31 30 31 31 31 31 31 30 29 29 28 28 27 25 23 19 19 21 22 24 27 29 30 33 36 39 40 42 42 42 41 43 45 44 42 43 44 44 44 43 44 45 45
25 26 27 28 29 30 31 31 31 31 31 31 31 32 32 31 31 30 30 30 29 28 27 25 22 20 20 19 22 26 30 33 35 38 39 39 41 41 42 44 44 43 42 43 45 44 44 44 44 46 47 45
25 26 28 28 29 30 30 31 31 31 31 31 32 32 32 32 32 31 31 30 30 30 29 27 25 22 19 18 22 27 32 36 38 41 42 41 42 43 44 44 43 43 45 45 45 45 45 45 45 45 45 45
26 27 28 29 30 30 30 31 31 31 32 32 32 33 33 34 33 32 32 31 31 31 30 29 27 24 21 19 24 31 34 38 42 45 45 44 45 46 44 44 45 46 46 47 47 47 46 45 45 45 44 44
28 29 30 30 31 31 31 30 30 31 31 32 33 33 34 34 34 33 32 32 32 32 31 30 28 27 23 21 27 34 38 41 44 45 46 45 46 46 45 45 46 46 47 47 47 47 47 47 47 45 44 41
29 29 31 32 32 32 32 31 30 30 30 31 32 33 33 34 34 34 33 33 32 32 32 31 29 28 25 24 29 36 40 41 42 44 46 45 45 46 46 45 45 46 47 46 47 48 48 48 46 45 43 41
30 29 30 32 34 34 33 32 31 31 30 30 31 32 33 34 34 34 33 33 33 33 32 32 31 29 28 26 29 35 37 38 39 42 44 44 44 45 45 46 46 46 46 46 49 51 50 47 46 46 45 42
31 31 30 31 32 33 33 33 32 32 32 31 32 32 32 33 33 33 34 33 33 33 32 32 32 30 29 28 30 35 36 36 39 41 43 46 46 45 45 46 47 46 46 49 52 53 50 47 47 48 46 42
32 33 33 32 32 32 33 32 33 33 33 33 33 33 32 32 32 32 33 34 33 33 33 33 33 32 31 29 32 35 36 34 36 39 42 45 47 47 46 47 48 48 50 52 54 51 48 48 49 48 42 39
35 35 35 35 34 33 32 32 33 33 33 34 33 32 32 31 31 31 32 32 33 33 34 33 33 34 33 31 33 35 34 34 36 40 44 46 49 49 50 50 49 50 53 55 56 54 51 50 47 42 38 35
37 37 37 38 38 35 33 33 34 35 35 34 33 32 32 31 30 30 31 31 33 33 33 34 34 34 34 33 33 35 35 37 40 42 45 48 51 51 51 51 50 50 53 57 58 56 57 55 46 38 34 33
38 38 38 39 39 37 36 36 36 37 37 36 35 34 33 33 31 30 31 31 32 33 33 34 35 35 35 35 35 37 38 40 42 43 44 47 51 53 53 52 52 53 55 56 54 55 64 66 57 50 42 40
39 39 39 39 38 38 37 37 37 37 37 37 37 37 36 36 34 32 32 31 32 32 33 34 35 36 36 37 37 38 41 42 42 43 44 46 50 54 56 56 55 54 54 53 53 61 71 69 63 62 55 49
41 41 41 40 39 39 39 38 38 38 36 36 37 38 38 38 37 35 33 32 31 31 32 33 35 37 37 38 39 39 42 43 44 45 45 46 50 53 55 56 56 55 52 50 50 56 63 61 66 71 60 52
44 44 42 42 41 40 40 40 40 39 38 36 37 38 38 38 37 36 35 33 32 30 31 32 34 37 38 39 40 41 43 44 46 47 46 46 49 51 52 54 57 56 52 49 47 48 52 52 59 65 58 58
44 45 45 45 44 43 42 41 41 41 40 38 38 38 38 39 37 36 36 34 33 31 31 32 33 35 37 38 39 41 44 46 46 46 45 46 48 50 51 52 57 57 53 51 48 48 50 50 49 51 54 61

ECMWFFLT2_925_rhum_069.txt.gz
RH
17 16 17 17 19 19 19 20 20 21 21 20 21 20 20 20 19 19 16 18 22 22 22 22 28 33 42 72 89 85 81 77 78 77 76 84 83 79 81 85 82 86 85 71 69 68 70 79 84 71 34 17
17 16 17 18 19 21 21 21 21 22 22 22 22 21 21 21 21 20 20 19 17 16 14 12 12 7 26 73 90 85 87 81 80 77 77 84 83 82 84 85 84 87 83 72 67 57 51 60 66 46 21 18
16 18 19 20 21 22 22 22 22 23 23 23 22 23 22 22 22 21 21 21 20 19 17 15 13 8 19 57 83 86 89 85 84 82 83 86 83 85 86 85 84 78 70 66 66 56 47 45 41 25 15 18
17 19 20 21 22 22 22 23 23 24 24 25 24 24 24 23 23 22 23 22 22 21 20 19 17 15 12 28 63 84 87 83 82 82 84 82 79 85 84 83 78 64 51 46 47 48 51 42 25 15 15 17
19 19 21 22 22 22 22 23 24 25 25 26 26 24 25 24 24 24 24 23 23 23 22 22 20 20 15 14 34 53 58 57 59 68 79 78 77 81 82 79 67 51 34 24 25 33 42 35 20 16 17 16
20 20 22 22 22 22 22 23 24 25 26 26 27 26 26 25 25 24 25 25 24 25 23 23 22 21 20 17 17 19 21 22 24 36 58 69 69 70 69 61 47 35 22 15 17 23 29 27 23 21 18 18
21 21 22 22 22 22 22 23 24 25 26 27 28 27 27 26 26 25 26 26 26 26 25 25 24 23 22 21 18 15 12 12 12 16 28 38 39 39 38 33 29 25 19 17 18 19 22 23 25 23 20 20
21 22 22 23 22 22 22 23 24 25 25 27 29 28 28 28 27 27 27 27 28 27 27 27 26 25 25 24 23 20 16 13 12 12 14 17 20 23 25 24 26 25 23 22 21 20 21 21 22 22 21 21
21 22 22 23 23 22 23 23 24 25 26 27 29 30 29 30 29 28 28 28 29 28 28 28 27 27 26 26 25 23 21 18 14 13 13 15 18 22 27 30 30 29 28 26 24 24 22 21 20 18 18 19
22 23 23 23 23 23 23 23 25 25 26 27 29 31 30 31 31 29 29 29 29 30 30 29 29 29 28 27 27 25 24 22 18 15 13 14 17 21 26 31 33 34 34 31 29 27 24 22 19 17 17 17
22 23 23 23 24 23 24 24 25 25 26 28 30 32 32 32 32 31 30 30 30 30 31 31 31 30 29 29 28 28 26 25 23 18 15 15 16 19 24 29 32 35 35 34 33 30 27 24 20 18 18 17
22 23 23 24 24 23 24 24 25 26 26 29 31 32 33 33 33 32 31 31 31 31 32 32 32 31 31 30 30 29 28 28 26 22 18 15 15 17 21 26 29 32 33 34 34 32 29 26 23 21 20 19
22 23 24 24 24 24 24 25 25 26 28 30 32 33 34 34 34 33 32 32 32 32 33 32 33 33 32 32 31 31 30 30 28 26 22 17 17 17 20 23 26 29 30 31 33 32 31 28 26 24 23 20
25 25 25 25 25 25 25 26 27 28 30 32 33 34 34 35 35 34 33 33 33 34 33 33 34 33 33 33 32 32 31 31 30 28 26 22 19 18 20 22 24 29 28 28 31 32 32 30 28 28 25 22
28 28 28 29 28 29 30 30 31 32 33 34 34 34 35 35 35 35 34 34 34 34 34 34 34 34 34 33 33 33 32 32 32 30 28 26 22 20 22 22 25 29 30 28 28 30 31 30 30 29 26 24
31 31 31 32 32 32 33 34 35 35 35 35 35 35 35 35 35 35 35 35 35 35 35 35 35 35 34 34 33 33 34 33 33 32 31 29 26 23 24 25 25 28 32 30 28 31 31 31 31 29 27 25
32 32 32 32 33 34 34 34 35 36 36 35 35 35 34 34 35 35 35 35 35 35 35 35 35 35 35 34 34 34 34 34 34 33 32 31 30 27 25 26 25 27 32 30 29 32 33 33 30 29 28 25
33 33 34 34 36 36 36 35 34 35 35 35 35 35 34 34 34 34 35 35 35 35 35 36 36 36 35 34 35 35 35 35 35 34 33 32 32 30 28 28 26 29 31 30 31 32 32 32 29 30 29 25
33 32 33 34 35 35 36 36 35 35 34 34 34 34 34 34 35 35 35 35 35 36 36 36 36 36 36 35 35 36 35 36 35 34 34 34 33 33 31 30 29 31 32 32 32 32 32 32 31 31 28 25
31 31 31 32 32 31 32 33 33 34 34 34 34 34 34 35 36 36 36 36 36 36 36 36 36 36 35 36 36 36 36 36 36 35 35 34 35 35 33 33 33 33 34 35 34 34 35 34 34 34 30 26
32 32 33 33 33 33 32 30 30 30 30 30 30 30 31 31 33 34 33 34 34 34 34 35 35 35 35 36 37 36 37 37 36 36 36 36 35 36 37 36 37 36 36 38 39 39 39 37 37 36 32 28
35 35 36 36 37 36 36 35 33 31 29 29 29 29 30 30 31 31 32 31 31 32 32 33 33 33 34 35 36 36 37 37 36 37 37 37 35 36 39 39 39 38 38 41 43 44 41 40 41 38 33 31
38 38 39 39 40 40 40 40 38 37 35 34 34 34 33 33 33 33 35 35 34 34 34 34 33 32 32 33 36 36 37 37 36 36 37 38 37 37 40 40 40 39 40 45 46 46 43 38 39 36 32 31
40 40 41 41 41 42 42 42 41 41 40 39 38 38 38 37 37 36 36 37 37 36 35 35 35 34 32 32 34 35 36 36 35 36 37 38 39 39 40 40 40 40 42 48 49 48 44 40 39 34 29 28
43 43 43 43 43 43 43 43 43 42 41 41 40 40 40 40 40 39 39 39 38 38 36 36 36 36 35 32 32 34 34 35 35 36 37 38 40 41 43 42 39 41 47 53 55 51 46 45 40 35 33 33
42 40 38 41 42 40 40 38 39 42 42 43 43 41 42 41 42 42 42 41 40 40 38 38 38 37 37 34 32 33 33 34 34 35 36 39 42 42 45 46 41 42 51 57 57 53 54 54 45 41 41 37
32 30 28 31 32 31 34 32 30 35 37 41 45 44 45 45 44 44 44 44 43 42 41 40 40 39 39 36 34 33 33 34 34 34 35 38 43 45 48 49 44 43 49 54 54 58 67 66 55 49 45 39
27 26 23 23 23 24 30 30 29 33 33 37 44 46 48 49 50 49 47 47 46 45 43 41 41 41 40 38 36 34 34 34 34 34 34 36 41 47 52 52 48 45 46 49 54 63 72 71 67 61 50 44
27 26 25 26 26 28 33 36 39 43 44 46 49 52 53 54 53 52 51 49 49 48 47 44 42 41 40 39 38 35 34 34 34 35 35 36 40 46 50 51 50 49 47 48 50 56 62 66 75 71 54 48
30 30 33 37 39 43 47 49 51 52 55 56 57 58 58 58 56 54 54 52 51 51 50 49 46 44 42 40 39 36 35 35 35 36 35 36 40 43 45 49 54 53 49 50 51 52 53 55 60 59 52 57
35 36 38 41 45 49 52 56 56 55 59 61 61 62 59 58 56 54 54 53 52 52 51 52 50 48 46 42 41 38 36 36 35 35 35 36 39 41 44 49 56 55 51 53 55 53 54 53 52 52 56 63

ECMWFFLT2_925_rhum_072.txt.gz
RH
38 25 18 18 19 20 19 20 20 21 21 21 22 21 22 21 22 21 21 22 21 26 23 22 23 20 53 83 81 80 78 76 76 74 75 74 73 74 74 74 75 82 86 84 82 81 81 82 87 85 57 28
32 24 20 19 19 20 19 20 20 21 22 23 24 23 24 23 23 22 23 24 22 24 22 23 22 19 43 70 76 80 81 81 82 80 80 78 74 76 76 74 76 84 86 80 76 71 71 77 78 66 40 25
21 21 20 20 21 21 20 21 21 22 23 24 25 25 26 25 25 24 24 24 24 25 24 24 24 23 31 52 69 73 73 71 72 76 81 81 80 81 80 80 83 85 81 72 65 52 49 53 48 34 25 26
18 18 19 21 22 22 22 22 22 23 24 25 26 27 27 27 26 26 26 25 25 26 26 26 26 26 25 39 58 60 55 47 44 52 64 75 81 83 84 85 81 75 68 58 47 31 27 27 22 19 20 24
18 17 20 21 22 23 23 23 23 24 25 25 26 27 28 28 28 28 28 27 26 27 27 27 27 28 26 31 41 41 36 29 26 32 44 51 52 54 59 57 46 40 38 33 29 23 22 20 19 20 19 20
18 18 20 21 22 23 22 23 23 23 24 25 26 26 28 29 29 29 29 29 28 28 28 29 29 29 29 29 30 29 27 26 25 25 29 27 20 21 23 22 17 18 21 22 26 27 25 23 23 22 20 20
18 19 21 21 22 23 23 23 23 23 24 24 26 26 28 29 30 30 31 30 29 29 29 30 30 30 30 30 30 29 29 28 27 26 26 22 17 15 13 13 14 16 17 20 25 28 30 27 26 24 22 21
19 20 21 22 23 23 23 23 23 24 23 25 25 26 27 29 31 31 32 32 31 30 30 31 31 31 31 31 31 30 30 29 29 28 27 26 23 20 16 14 14 15 16 18 20 24 28 28 27 26 24 22
19 20 21 23 23 23 24 24 24 24 24 25 25 27 28 30 32 32 33 32 32 31 31 31 31 32 32 32 32 31 32 31 30 30 29 28 26 24 21 18 15 15 16 16 17 18 21 24 25 25 24 23
20 21 22 23 24 24 24 24 25 24 25 25 26 28 28 30 33 33 34 33 33 32 32 32 32 33 33 33 33 32 32 32 31 31 31 30 28 27 25 22 19 16 17 17 17 17 18 19 21 22 24 23
21 22 23 24 26 25 26 26 26 26 26 27 28 29 29 32 34 34 35 35 34 33 32 33 33 33 33 33 33 33 33 33 32 32 32 31 30 29 28 26 23 20 18 18 18 17 17 17 18 19 20 22
25 26 27 27 28 27 28 28 28 28 28 29 29 30 32 33 35 36 36 36 35 34 34 34 34 34 34 34 34 34 34 33 33 33 33 32 31 30 29 28 27 25 21 19 20 19 18 17 17 18 18 19
29 29 30 30 31 31 31 32 32 32 32 33 33 34 35 36 38 38 37 37 36 35 35 34 35 35 34 35 34 34 34 34 34 34 34 33 33 32 30 30 28 27 25 22 21 20 20 19 19 18 17 17
31 30 31 31 32 32 33 34 35 35 35 36 36 37 38 39 39 38 38 37 36 36 36 35 35 35 35 35 35 35 34 34 35 34 34 34 33 33 31 31 30 29 28 26 24 23 22 22 21 20 18 17
31 31 32 32 33 34 34 34 33 34 35 36 36 37 38 38 37 37 37 36 36 36 36 36 36 36 36 35 35 35 35 35 35 35 35 34 34 33 33 32 31 31 30 29 27 26 25 25 24 23 20 18
32 32 33 33 34 34 35 35 35 35 34 35 35 35 35 35 36 36 35 35 36 36 36 36 36 36 36 35 35 35 36 35 35 35 35 35 34 34 34 33 32 31 31 31 29 28 28 27 26 25 24 21
30 31 32 32 32 32 32 33 33 34 34 35 34 34 34 34 34 34 35 35 36 36 36 35 35 35 33 33 34 34 35 35 35 35 35 34 34 34 34 34 32 32 32 32 31 30 29 29 28 27 26 24
31 33 34 35 36 36 35 34 33 32 31 31 31 31 31 31 30 30 32 33 34 35 34 33 32 31 30 31 33 34 34 35 35 35 35 34 35 35 34 34 33 33 33 32 32 32 31 31 30 29 28 26
36 37 39 40 40 40 40 40 38 36 34 32 31 31 32 31 31 30 31 31 31 32 31 31 31 32 33 32 31 32 33 35 35 34 35 35 35 35 35 35 34 34 34 34 33 33 33 32 31 31 29 26
39 40 41 41 42 42 43 43 43 42 41 39 38 38 37 36 36 35 34 34 32 32 32 33 34 36 37 36 34 32 32 33 34 35 35 35 36 36 35 35 35 35 35 34 34 34 34 34 33 33 31 28
42 42 43 44 44 43 41 39 39 41 42 43 43 42 41 39 39 39 38 37 36 35 34 34 35 36 37 38 38 36 34 33 32 34 35 35 35 37 37 37 36 35 35 35 36 35 35 34 34 34 34 32
41 39 38 38 37 33 27 23 24 26 29 33 38 42 44 43 41 41 41 40 40 38 37 37 37 37 38 38 39 39 38 35 34 33 34 35 34 36 39 38 38 37 36 38 38 38 35 34 35 35 34 34
31 26 25 25 24 22 20 19 18 18 17 18 22 29 38 44 45 44 43 43 43 42 41 40 39 39 39 39 40 40 39 38 37 33 33 35 34 36 38 39 39 38 40 44 44 42 37 35 36 35 34 34
24 23 23 23 22 23 22 21 21 20 18 17 15 17 26 37 44 45 46 46 47 47 45 43 41 40 40 39 40 40 40 40 39 35 33 33 34 35 37 39 37 38 45 50 48 43 39 39 39 37 34 33
27 27 28 29 29 29 28 26 26 24 21 21 20 21 28 37 42 46 48 50 52 52 51 49 46 44 42 40 39 40 41 41 39 37 34 33 35 35 39 40 35 39 48 53 52 46 44 44 40 37 37 36
33 34 35 36 36 35 35 32 32 33 30 32 34 33 38 44 48 51 53 55 56 55 54 54 53 51 49 45 41 40 40 40 40 38 36 34 35 36 41 42 36 40 50 53 52 50 53 52 43 42 42 40
38 39 39 39 39 38 38 35 35 37 38 43 49 48 47 48 49 51 53 54 55 56 56 56 56 55 55 53 49 45 42 41 40 39 38 36 36 39 45 45 39 40 48 51 50 55 65 61 52 50 46 42
40 41 39 38 36 35 35 33 32 34 39 49 57 57 55 49 47 50 53 56 57 58 58 57 58 58 57 56 55 52 49 46 43 41 39 37 37 41 48 49 43 41 44 48 50 59 69 68 67 64 50 43
42 42 40 38 35 33 33 34 36 42 50 58 61 60 59 57 57 61 62 62 62 62 63 63 63 63 62 61 59 57 56 53 50 46 44 41 38 40 45 46 46 46 45 45 48 53 59 66 78 74 52 47
44 43 43 41 39 40 42 45 49 56 61 63 62 63 64 66 68 68 69 68 69 68 68 68 66 66 65 63 63 62 61 58 56 53 49 46 42 40 41 43 50 51 45 46 51 51 50 53 62 60 53 57
44 43 40 37 37 42 47 52 57 60 63 63 64 67 70 73 72 72 73 71 70 69 67 66 65 65 63 61 60 61 63 63 60 58 55 52 49 44 41 44 52 51 45 50 54 51 50 51 51 51 55 62

ECMWFFLT2_925_rhum_075.txt.gz
RH
27 19 19 21 22 22 20 22 22 23 23 24 25 26 26 25 26 25 25 26 30 33 30 32 41 63 73 73 77 76 78 78 78 79 80 82 80 81 79 79 86 90 89 88 85 81 79 84 76 42 22 18
28 22 20 21 22 22 21 22 22 23 23 24 25 26 27 27 28 27 28 26 27 27 27 28 26 46 66 70 73 72 73 72 72 74 77 83 84 85 84 89 95 88 81 79 75 72 73 74 55 27 21 18
25 22 21 22 22 24 24 24 23 23 23 24 25 25 27 28 29 29 30 29 29 28 28 30 26 33 53 67 67 65 67 65 67 69 73 79 79 80 84 86 73 54 48 47 44 48 53 47 30 20 21 19
22 20 21 21 23 24 24 24 23 24 23 24 25 26 27 28 30 30 31 31 30 30 29 30 30 29 39 58 63 60 59 54 57 65 71 72 67 63 56 45 28 19 20 21 21 26 29 26 20 20 21 20
19 19 19 20 22 23 24 25 25 24 24 24 25 26 27 27 29 31 31 32 31 31 31 30 32 30 32 45 53 50 44 39 42 55 61 54 47 40 27 19 14 14 14 14 16 18 19 19 18 19 20 21
19 18 19 20 21 23 23 24 25 25 25 25 26 26 27 28 29 31 32 33 33 32 32 31 31 32 31 34 38 37 33 31 32 39 42 35 32 29 23 22 20 17 15 14 15 15 16 16 17 18 19 19
18 18 19 20 21 22 24 25 26 26 27 26 26 27 27 29 29 30 33 33 34 33 33 32 32 32 33 32 32 32 32 32 31 31 32 29 29 28 27 25 23 22 20 17 15 15 15 15 16 17 17 19
18 19 19 20 21 22 23 25 26 26 27 28 27 28 28 29 30 30 33 34 35 35 34 33 33 33 33 33 33 33 33 32 33 32 31 31 30 29 28 27 26 25 23 21 19 17 16 16 16 16 16 17
18 19 19 20 21 22 25 26 27 27 28 29 28 29 29 30 31 31 33 35 36 35 35 34 33 34 34 34 33 34 34 33 33 33 32 32 31 30 30 29 28 27 25 24 22 20 19 17 17 17 17 16
18 20 21 23 24 26 28 28 28 28 28 29 29 30 30 31 32 33 35 37 37 36 36 35 34 35 34 35 34 34 34 34 34 33 33 32 32 32 31 30 29 28 27 26 25 23 21 20 19 18 18 17
23 25 26 27 29 29 29 29 29 29 29 29 30 31 32 34 34 36 38 37 37 37 36 35 35 35 35 35 35 35 35 35 35 34 34 33 33 32 32 31 30 30 29 28 27 25 24 23 22 21 21 21
28 29 30 29 30 30 30 30 30 30 30 31 32 33 35 36 37 38 38 36 36 36 35 35 35 35 35 35 35 35 35 35 35 34 34 34 33 33 32 32 31 31 30 29 29 27 27 25 24 24 23 23
30 31 32 32 33 33 33 33 33 32 32 32 33 34 35 36 37 37 35 35 34 34 34 34 34 35 34 35 35 34 34 34 34 33 33 33 33 33 32 32 32 31 31 30 30 29 28 27 26 25 25 25
32 32 32 32 32 32 32 33 34 34 34 34 34 35 35 35 35 34 34 34 34 34 35 35 35 35 35 34 33 33 33 33 33 33 32 32 33 33 32 32 32 32 32 31 30 31 30 29 29 27 27 26
32 32 32 32 32 32 32 32 33 33 33 33 33 34 33 33 33 32 32 32 32 34 34 35 35 35 34 31 30 31 31 31 32 33 32 32 32 33 33 32 32 32 32 31 31 31 31 31 31 30 29 28
34 35 36 37 37 38 38 38 37 35 34 33 32 34 33 33 33 32 32 31 31 32 32 32 32 32 31 31 31 30 30 30 30 32 32 32 33 33 33 33 33 32 32 32 32 31 32 32 32 32 32 31
38 40 41 42 42 43 43 43 43 43 42 40 37 38 38 37 37 37 36 35 35 34 33 32 31 31 31 34 35 34 34 32 31 31 30 31 33 33 34 33 33 33 33 32 32 32 32 32 32 33 33 33
41 43 43 44 44 41 37 34 36 38 41 43 43 43 43 41 41 40 39 39 38 37 36 35 34 34 34 35 37 38 39 38 37 35 32 31 32 33 34 34 34 33 33 32 32 32 32 32 32 32 32 33
43 44 44 41 36 29 24 21 22 24 26 30 34 39 43 44 44 43 42 41 40 39 38 38 37 36 36 36 37 38 40 41 41 40 38 36 33 32 32 33 34 33 33 32 32 32 32 32 31 32 31 32
43 41 37 30 24 21 21 21 21 20 19 19 21 25 30 37 42 45 45 44 44 43 42 41 40 40 39 38 37 38 39 40 42 42 42 41 37 34 32 32 32 32 32 32 32 32 32 32 31 32 31 30
33 31 27 24 25 27 27 28 27 25 24 21 20 19 20 26 33 40 45 47 49 48 49 49 48 47 45 42 39 38 38 39 41 42 42 42 41 36 34 33 32 31 32 31 32 32 31 31 31 31 31 31
27 28 28 29 32 33 33 33 32 30 27 25 23 21 20 22 28 37 43 48 53 54 55 55 55 54 52 50 47 44 41 39 39 40 41 42 42 39 36 35 34 33 33 33 33 33 33 33 33 32 32 33
32 33 34 36 37 37 38 36 34 30 27 26 25 24 22 22 26 35 43 48 53 55 56 57 57 56 55 55 55 53 50 46 43 40 40 41 41 39 37 36 36 35 35 37 36 35 36 36 35 35 36 36
37 38 37 37 36 36 35 33 31 28 26 28 29 27 25 24 25 31 39 46 51 55 57 58 58 58 57 57 58 58 56 54 52 48 45 43 41 40 39 37 37 36 37 42 41 38 39 38 37 38 38 37
39 39 39 36 34 33 31 30 31 28 29 35 34 30 31 34 36 38 43 50 55 58 60 61 61 61 60 59 60 61 60 59 57 55 53 49 47 44 43 42 39 38 42 47 45 40 40 41 40 40 40 40
38 37 36 32 31 30 28 30 34 37 41 46 42 39 46 54 58 59 59 61 62 63 64 65 65 65 65 64 64 64 62 62 61 60 59 56 54 51 49 48 44 42 45 47 45 42 43 42 41 43 44 43
33 32 30 27 28 30 32 34 38 42 48 52 50 54 63 68 70 70 68 67 67 67 67 68 67 66 65 65 64 64 62 61 60 61 62 62 60 57 55 53 49 46 45 46 47 45 45 41 42 46 44 40
29 29 28 28 30 32 33 36 41 46 52 58 61 67 74 76 77 74 71 70 68 66 65 63 63 62 61 61 61 61 61 60 58 58 60 63 64 63 61 57 53 50 47 47 45 43 44 45 48 49 41 37
29 30 31 32 33 35 39 44 51 58 65 69 73 78 79 76 72 68 65 63 59 55 54 50 48 47 48 50 50 51 55 58 55 53 55 61 65 66 64 60 56 53 51 49 45 42 43 47 51 49 41 40
32 35 41 46 50 54 57 61 66 71 75 77 79 80 75 68 61 58 58 58 53 52 54 51 47 45 47 48 47 48 54 58 57 57 58 61 65 67 66 64 61 58 55 52 49 47 44 45 47 46 42 44
39 45 53 59 65 70 71 72 73 73 74 72 72 69 62 59 57 55 57 57 56 57 60 60 60 60 61 62 62 62 65 66 67 69 67 64 66 66 66 68 66 62 59 57 55 53 49 47 47 45 44 44

ECMWFFLT2_925_rhum_078.txt.gz
RH
38 33 41 51 47 37 38 46 48 49 49 43 38 33 30 30 29 32 36 43 52 50 38 45 66 75 76 77 77 77 76 76 77 80 85 85 87 88 88 97 94 81 76 77 74 68 61 46 28 14 12 13
26 21 31 35 29 25 26 34 41 45 45 34 28 27 27 30 30 30 30 31 36 37 30 30 45 65 74 74 74 73 71 72 74 79 83 80 82 83 82 80 59 38 36 44 48 48 43 26 15 13 13 13
42 24 24 26 25 31 32 36 43 48 46 32 26 27 27 29 30 31 32 31 31 30 31 30 31 47 67 71 68 68 65 64 70 76 78 75 76 69 54 40 24 15 15 19 24 26 24 15 13 14 15 14
58 33 23 27 28 33 37 42 47 50 48 38 30 27 27 28 29 31 32 33 34 32 31 31 30 33 50 65 66 64 56 50 61 72 72 70 68 50 30 23 20 19 17 15 15 14 15 12 17 19 16 15
46 32 28 34 29 28 31 33 36 44 51 52 47 35 29 35 39 38 36 35 34 34 32 32 33 30 36 51 58 55 44 36 46 63 63 56 50 36 26 26 24 23 21 19 18 16 15 14 22 23 14 15
29 26 28 31 25 23 25 24 27 37 44 49 53 44 38 48 50 44 41 38 35 35 35 34 33 32 32 38 41 39 35 31 36 45 44 38 34 30 27 27 27 27 25 22 22 20 18 19 24 20 13 17
24 25 24 23 22 23 24 24 25 30 32 34 39 36 38 52 48 38 40 39 35 35 36 35 33 33 33 33 33 33 33 33 32 33 33 31 30 29 29 30 32 31 28 28 26 23 23 24 23 18 16 20
22 23 22 24 23 24 25 25 25 27 28 29 30 28 34 46 39 31 39 39 36 38 39 38 36 34 34 35 35 33 34 37 34 34 34 32 32 33 32 33 35 32 33 34 29 28 28 26 23 20 21 23
24 22 23 28 25 25 28 27 28 28 28 29 28 29 31 34 31 30 37 39 39 41 39 38 40 40 39 38 38 35 37 43 40 39 39 37 37 39 37 34 34 32 33 34 31 32 30 26 25 24 27 26
24 23 29 32 29 31 33 29 30 31 30 31 29 30 30 31 34 35 40 40 38 38 36 37 41 42 40 39 41 40 40 44 42 41 41 40 40 40 37 34 33 31 31 31 30 32 30 27 27 26 29 28
29 31 34 33 32 35 36 34 36 35 33 33 33 33 33 35 39 40 43 42 38 36 36 38 40 40 39 39 42 42 41 42 41 42 41 40 41 38 36 34 32 32 32 31 30 30 29 28 28 28 30 30
37 37 36 35 36 36 35 39 40 36 35 36 36 36 35 36 39 41 42 42 41 38 39 41 39 38 40 41 42 41 40 40 40 41 41 41 41 40 40 39 37 37 36 34 34 32 31 30 29 29 30 29
40 39 37 37 38 37 36 40 39 36 38 39 38 36 33 33 37 41 41 41 42 39 41 42 38 38 41 41 42 40 40 41 40 40 41 42 42 42 42 41 41 42 41 39 38 35 33 32 32 32 31 30
40 40 40 41 42 42 41 41 39 39 40 41 41 38 34 34 37 41 41 41 42 40 41 42 39 39 40 39 40 39 39 40 39 38 40 41 42 43 42 42 42 42 42 41 40 38 34 33 34 35 35 33
41 42 44 45 45 45 45 46 45 44 44 44 44 40 37 37 37 40 44 43 43 43 43 43 42 41 41 39 40 40 39 40 39 39 39 39 38 39 40 40 41 42 41 42 42 42 38 34 35 36 36 35
45 45 45 43 39 38 38 42 43 44 45 46 46 43 42 42 39 40 46 47 45 45 45 46 44 44 43 41 42 42 40 39 39 40 40 40 38 36 38 38 41 42 41 41 42 43 41 38 38 37 36 35
44 42 38 34 30 26 27 32 33 34 35 36 39 39 39 42 43 45 48 47 44 45 49 49 48 48 46 44 46 45 40 38 40 43 43 44 43 41 41 42 44 44 42 41 41 42 42 40 40 39 37 35
37 33 29 28 26 24 27 30 29 30 28 27 29 30 28 29 34 42 46 46 46 48 51 51 51 51 49 50 50 46 44 43 44 46 45 45 46 45 45 46 45 44 43 41 41 42 42 40 40 40 37 35
31 28 28 30 31 30 32 34 35 34 32 30 29 28 26 22 24 31 36 42 45 49 55 56 55 54 54 55 53 50 50 48 45 46 47 46 47 47 46 47 46 44 44 43 42 42 43 42 41 40 39 38
31 32 34 34 36 36 36 38 38 38 37 37 35 34 33 25 23 28 31 37 42 47 56 59 59 59 59 59 56 55 55 53 50 50 51 49 49 50 47 46 47 46 44 44 45 44 43 42 41 42 43 42
34 36 37 37 38 38 38 39 38 37 37 37 36 37 36 27 28 35 34 39 48 53 60 62 63 64 63 62 60 59 59 58 56 55 55 52 51 54 52 48 47 46 44 44 46 46 44 43 43 44 44 43
37 38 38 38 39 39 39 39 38 37 36 38 41 38 35 32 39 48 46 52 60 62 66 66 66 68 67 65 64 63 63 61 60 59 60 59 55 56 56 52 47 46 45 47 51 49 46 44 45 45 44 44
39 39 39 39 38 38 38 38 38 38 38 41 43 39 41 48 57 64 64 67 69 68 69 68 67 69 70 69 67 66 65 62 62 62 64 64 62 60 59 57 54 51 50 52 54 53 49 46 45 45 44 45
41 41 40 38 38 36 35 39 39 40 43 44 43 45 53 63 70 74 74 74 73 71 71 68 67 69 69 69 67 67 67 65 65 66 67 66 65 64 62 60 57 56 57 54 52 52 50 47 47 46 44 44
41 42 41 38 37 36 35 40 41 42 49 51 52 58 65 71 76 76 75 75 73 72 71 68 66 67 67 67 66 66 67 67 68 68 68 66 65 64 62 59 56 56 59 54 47 44 42 43 44 45 46 44
41 41 41 39 37 37 37 40 43 47 54 59 60 65 71 75 75 70 68 69 67 66 65 64 62 60 60 62 63 64 64 64 65 64 64 64 62 60 60 58 56 59 58 51 45 41 39 39 37 39 45 47
43 43 43 43 42 42 41 42 49 54 59 63 62 65 71 71 67 62 59 60 60 57 56 57 56 54 53 55 56 56 55 55 57 58 60 61 60 59 58 56 56 59 59 53 47 43 41 37 33 35 39 41
48 48 48 49 50 51 50 49 54 55 56 58 58 61 63 58 57 57 54 55 55 54 56 57 57 56 56 55 54 53 51 49 51 53 56 58 59 59 55 53 52 54 58 58 52 44 41 37 37 39 34 31
53 54 53 52 51 52 51 49 49 45 42 46 46 47 47 44 46 49 49 51 53 55 58 60 63 65 64 62 60 59 56 54 53 53 56 58 60 59 56 54 54 53 55 58 58 51 46 44 43 41 33 31
57 60 57 52 46 42 41 40 37 34 34 37 38 37 39 41 44 47 48 51 54 58 62 65 67 65 63 60 58 57 57 56 56 57 60 62 61 59 58 59 57 55 54 55 58 58 55 52 48 42 38 39
61 59 52 44 38 35 35 34 32 33 37 39 41 42 43 46 48 50 51 52 55 61 64 65 63 56 52 50 47 47 49 52 55 56 58 62 64 61 58 58 57 55 54 52 52 55 58 57 55 51 48 45